ECMWFNIL_250_spd_003.txt.gz
Wind_Speed
62 63 64 65 66 66 67 67 66 66 66 65 65 65 65 65 65 66 66 67 68 69 70 70 71 73 75 76 76 76 76 74 71 70 70 69 68 68 67 66 65 64
63 64 65 65 66 67 67 67 67 67 67 67 67 67 67 67 67 67 68 68 69 70 71 72 73 74 75 77 77 77 77 77 76 74 71 70 70 70 69 68 67 66
65 65 65 66 66 67 67 67 68 68 68 68 69 69 69 69 69 69 70 70 70 71 72 73 74 75 76 77 78 79 79 79 79 78 76 73 71 71 71 70 69 69
67 67 66 67 67 67 67 67 67 68 68 69 69 70 71 71 71 71 71 71 72 72 73 73 74 75 77 78 78 79 80 80 80 80 80 78 75 72 72 72 71 70
68 68 68 68 68 68 68 67 67 67 68 68 69 70 70 71 71 72 72 72 73 73 74 74 75 76 77 78 79 80 81 82 83 83 82 81 80 77 75 73 72 72
69 69 70 70 70 70 69 69 69 69 68 69 69 70 70 70 71 71 72 73 73 74 75 75 76 76 77 78 79 80 81 83 84 85 84 83 83 82 80 77 75 74
70 70 71 71 71 71 71 71 71 71 71 71 71 71 71 71 71 71 72 73 74 74 75 76 77 77 78 78 79 80 82 83 84 86 86 86 86 85 85 83 79 78
71 71 71 72 72 72 73 73 73 73 73 73 73 73 72 72 72 72 72 73 74 75 75 77 77 78 79 79 79 80 82 83 85 86 87 87 88 88 87 87 85 82
73 72 72 72 72 73 73 74 74 75 75 75 75 75 75 74 74 74 75 75 75 76 76 77 78 79 80 80 80 81 82 83 85 86 87 88 89 90 90 90 89 87
73 73 73 73 73 73 74 74 75 76 76 77 77 77 77 77 77 77 77 77 77 78 78 78 79 80 80 81 81 82 83 84 85 86 87 88 90 91 92 92 92 91
74 73 73 73 74 74 74 75 76 77 77 78 78 78 79 79 79 79 79 79 79 79 80 80 81 81 81 82 83 84 85 85 86 87 88 89 90 91 93 93 93 93
75 75 75 75 75 75 75 76 77 77 78 79 80 80 81 81 81 81 81 81 81 81 81 82 82 82 82 83 84 86 87 88 89 89 89 90 91 91 92 94 94 94
78 78 78 78 77 77 78 78 78 79 79 80 81 82 82 82 83 83 83 83 83 83 83 83 83 84 84 85 86 87 88 89 90 91 92 91 92 92 93 93 94 95
82 81 81 81 80 80 81 81 81 81 81 82 83 83 84 84 84 85 85 85 85 85 85 84 84 85 86 87 88 88 89 90 91 92 93 93 93 94 94 94 95 95
84 84 83 83 83 83 83 83 83 83 83 84 84 85 85 86 86 86 86 87 87 87 87 86 86 86 88 89 90 90 90 91 91 92 93 94 95 95 96 96 96 96
86 86 85 85 85 85 85 85 85 85 85 86 86 87 87 88 88 88 88 88 89 89 88 88 88 88 90 91 92 92 92 92 92 93 93 93 94 95 96 97 98 98
89 88 87 87 86 86 86 86 87 87 87 88 88 89 89 90 90 90 90 90 90 90 90 90 90 90 92 93 94 94 94 94 94 94 94 93 93 94 95 97 98 98
91 90 89 88 88 88 88 88 89 89 89 89 90 90 91 91 91 91 92 92 92 92 92 92 92 93 94 95 96 97 97 96 96 95 95 94 94 94 94 96 97 98
92 92 91 91 91 91 91 91 91 91 90 91 91 91 92 92 93 93 93 93 93 93 93 93 94 95 96 97 97 98 99 98 98 97 96 96 95 95 95 96 97 98
91 91 91 91 92 92 92 92 92 92 92 92 92 92 93 93 94 94 94 94 94 95 95 95 95 96 98 99 99 100 100 100 99 99 98 97 97 97 97 97 98 98
87 88 88 89 90 90 91 92 92 92 92 93 92 92 93 94 94 94 95 95 95 95 96 96 97 98 99 100 101 102 102 101 100 99 98 98 98 98 98 99 99 100
82 82 82 84 85 87 88 88 89 90 90 91 91 91 92 92 93 93 94 95 96 96 97 97 98 100 101 101 103 104 104 103 101 100 98 97 97 98 99 99 101 101
76 76 77 79 80 81 82 83 84 84 85 85 85 86 87 88 89 89 90 92 93 94 96 96 98 100 101 102 103 104 104 103 102 100 98 97 97 98 99 100 101 102
72 72 73 73 74 75 75 75 75 75 75 76 76 78 79 80 81 82 83 85 87 90 91 92 94 96 98 99 100 101 102 102 100 98 96 96 96 98 100 101 102 103
68 68 68 68 68 68 67 66 66 66 66 67 67 68 69 70 71 72 74 77 80 82 84 86 87 89 91 92 94 96 97 96 95 93 92 93 94 97 99 101 102 103
64 63 63 62 61 61 60 59 60 60 60 60 61 61 61 62 64 65 67 70 72 74 75 77 78 79 82 84 85 87 88 88 87 86 85 87 90 92 95 98 100 101

ECMWFNIL_250_spd_006.txt.gz
Wind_Speed
58 58 58 58 58 59 60 60 61 62 62 62 62 62 63 63 63 64 64 64 64 65 65 66 66 67 67 67 67 67 68 69 69 68 66 67 68 69 69 68 66 66
60 60 60 60 60 60 61 61 62 62 63 63 64 64 65 65 65 65 65 66 66 66 67 67 68 68 69 70 69 69 69 70 72 72 70 68 69 70 70 70 69 69
62 62 62 62 63 63 63 63 63 63 64 64 65 66 67 67 67 68 68 68 68 68 69 69 70 70 71 71 72 71 71 71 73 74 74 72 71 71 71 72 72 72
65 65 65 64 64 64 65 64 64 64 65 65 66 67 68 69 69 70 70 69 69 70 70 71 71 72 73 73 73 74 73 73 74 75 76 75 75 75 74 74 73 73
68 68 68 67 66 66 66 66 66 66 66 66 67 68 69 70 70 71 72 72 72 72 72 72 73 73 74 75 75 75 76 76 76 76 76 77 78 78 77 77 75 74
70 70 70 70 70 69 69 68 68 68 68 68 69 69 70 70 71 72 73 73 73 74 74 74 74 74 74 75 76 77 78 78 79 79 78 78 79 80 80 80 79 78
72 72 72 72 72 72 72 71 70 70 70 70 71 71 71 71 72 73 74 74 75 75 76 76 76 76 76 76 76 77 79 80 81 81 81 80 81 81 82 82 82 81
74 74 74 73 74 74 74 74 73 72 72 72 72 73 73 74 74 74 74 75 75 76 76 77 78 78 78 77 77 78 79 81 82 82 83 83 83 83 83 84 84 84
76 76 76 75 75 75 75 75 75 74 74 74 74 74 74 75 76 76 76 76 76 77 77 78 78 79 79 79 79 79 80 81 82 83 83 84 85 85 85 85 85 85
76 76 76 76 76 76 76 76 76 76 76 76 76 75 75 76 77 78 78 78 78 78 78 78 79 79 79 80 80 81 81 82 82 83 84 84 85 86 86 86 86 85
75 75 75 76 76 76 76 77 77 77 77 77 77 77 76 76 77 78 79 80 80 80 79 79 79 79 80 80 81 81 82 82 83 83 84 84 85 86 87 87 87 86
76 75 76 76 76 76 76 76 77 77 77 77 77 77 77 77 77 78 79 80 81 82 82 81 80 80 80 81 81 82 82 83 83 83 83 84 84 86 86 87 87 87
79 78 78 77 77 77 77 76 77 77 77 77 76 76 77 77 77 78 78 79 81 82 83 83 83 82 82 82 83 84 84 83 83 82 83 83 84 85 86 86 86 87
83 82 81 80 80 79 79 78 78 78 77 77 76 76 76 77 78 78 78 79 80 82 83 84 84 84 84 84 85 85 85 84 84 83 83 83 84 84 85 85 86 86
87 86 85 84 83 82 81 81 80 80 79 78 77 78 78 78 79 79 79 80 80 81 82 83 85 86 87 87 87 87 87 86 85 84 84 84 84 84 85 85 85 86
90 89 88 87 86 85 84 84 83 83 82 81 80 81 81 81 81 81 81 81 82 82 83 83 85 86 88 89 89 89 88 87 87 86 86 85 85 85 86 85 85 86
92 91 91 90 89 88 87 86 86 85 84 84 83 83 84 83 83 83 83 83 83 83 84 84 85 87 88 90 90 90 89 89 88 88 88 87 87 87 87 87 87 86
93 92 92 92 91 91 90 89 88 88 87 86 86 86 86 86 85 85 85 85 85 85 85 85 86 88 89 90 91 91 90 90 89 89 89 89 89 89 88 88 88 88
95 95 94 93 92 92 91 90 90 89 88 88 88 88 88 88 87 87 87 87 86 86 87 87 88 89 91 91 92 92 92 91 91 91 90 90 90 90 90 90 90 89
95 95 95 95 94 93 92 92 91 90 90 90 89 90 90 89 89 88 88 88 88 87 88 88 89 91 92 93 93 93 93 92 92 91 91 91 91 91 91 91 91 90
92 92 93 93 93 93 92 92 91 91 91 91 91 92 92 91 90 90 90 89 88 88 88 89 91 92 93 94 95 95 95 94 93 92 92 92 92 92 92 92 92 92
88 88 89 89 90 89 89 89 89 89 90 90 91 91 91 91 90 90 90 89 89 89 89 90 91 93 94 95 96 96 97 96 94 94 93 93 93 93 93 93 93 93
82 82 83 84 85 85 85 85 85 85 86 86 87 87 87 87 87 87 87 87 87 88 88 89 91 93 94 95 96 97 97 97 96 95 94 94 94 94 94 93 94 94
75 76 77 78 80 81 80 80 81 81 82 83 83 82 82 82 82 81 81 81 82 83 84 85 88 90 93 94 95 96 97 96 96 95 95 94 95 95 95 94 94 95
68 69 71 73 74 74 74 75 77 78 79 79 78 77 77 77 77 76 76 77 77 78 80 82 83 86 88 90 92 93 94 94 94 93 94 94 95 96 96 95 95 96
63 64 66 67 68 67 68 70 72 73 74 74 73 72 72 71 71 71 71 72 74 75 76 78 80 81 83 84 85 86 88 88 89 90 92 93 94 95 96 96 97 97

ECMWFNIL_250_spd_009.txt.gz
Wind_Speed
53 54 55 55 55 55 54 54 55 55 56 56 57 57 58 59 60 60 60 60 61 61 61 61 62 62 63 63 64 64 64 64 65 65 64 65 65 65 65 65 65 64
56 56 56 56 57 58 58 57 56 56 57 57 58 59 60 60 61 62 62 63 63 63 63 63 64 64 65 65 65 66 66 66 66 67 66 66 66 67 68 67 67 66
58 58 58 58 58 59 60 60 59 59 58 59 59 60 60 61 62 63 63 64 64 64 65 65 66 66 66 66 67 68 68 68 68 68 68 68 68 68 69 69 69 69
62 61 61 61 60 60 60 61 61 61 61 61 61 61 61 62 63 63 64 65 65 66 66 67 67 67 68 68 68 69 70 71 71 70 70 71 71 70 70 70 71 71
65 65 65 64 63 63 63 62 62 63 64 64 64 63 63 64 64 64 65 65 66 66 67 67 68 68 69 69 70 71 72 72 73 73 72 72 73 73 72 71 71 72
68 68 68 68 67 67 66 66 65 65 65 66 66 66 66 66 66 66 66 66 67 67 67 68 68 69 70 70 71 72 73 74 74 75 75 75 75 75 75 74 73 73
71 71 72 71 71 70 70 69 69 68 68 68 68 68 68 68 68 68 68 68 68 68 68 68 69 70 70 71 72 73 74 75 75 76 77 77 77 77 77 76 75 75
73 73 74 74 73 73 73 72 72 72 71 71 71 71 71 71 71 70 70 70 70 70 70 70 70 71 71 72 73 74 75 76 76 77 77 78 79 79 79 79 78 77
74 74 74 75 75 75 75 74 74 74 74 74 74 74 73 73 73 72 72 72 72 72 72 72 72 72 73 73 74 75 76 77 77 78 78 79 80 81 81 81 80 80
75 75 75 75 75 75 75 75 75 76 76 76 76 76 75 75 74 74 75 75 75 75 75 74 74 74 74 75 75 76 77 78 78 78 78 79 80 81 82 82 82 82
76 76 76 75 75 75 74 74 75 76 76 77 77 77 77 76 76 76 76 77 77 78 78 77 77 76 76 77 77 78 78 78 79 79 79 79 80 81 82 82 83 83
79 79 78 77 77 76 75 75 75 76 76 76 77 77 77 77 77 77 78 78 79 79 79 79 79 79 79 79 80 80 80 80 80 80 79 79 80 81 82 83 83 84
83 82 82 81 80 79 78 78 78 77 77 77 76 76 76 77 77 78 79 80 80 80 80 80 80 81 82 82 82 82 81 81 81 81 81 80 80 81 82 83 83 84
87 86 86 85 84 83 82 82 81 80 79 78 77 76 76 76 77 78 79 80 81 81 81 81 81 82 82 83 83 83 83 82 82 82 82 82 82 82 82 82 83 84
90 90 90 89 88 87 86 85 84 83 82 81 79 78 78 78 78 79 80 80 81 81 81 82 82 82 83 84 84 84 84 83 82 82 82 83 83 84 83 83 83 84
92 93 93 92 91 90 90 89 88 87 86 84 82 81 81 81 81 81 81 81 81 81 81 81 82 82 83 84 84 84 84 83 83 83 83 83 83 84 85 85 85 84
92 93 94 94 93 93 92 92 91 90 89 88 86 85 85 84 84 84 84 83 83 82 82 82 82 83 83 83 84 84 84 84 84 84 83 83 83 84 85 86 86 86
90 92 93 93 94 94 94 94 93 92 91 90 89 89 89 88 88 88 87 86 85 85 84 84 84 84 84 84 84 84 83 83 83 84 84 83 84 84 84 86 87 87
87 88 89 90 91 93 94 94 94 93 92 92 92 92 92 91 91 90 89 89 88 87 87 87 87 87 87 86 86 85 84 83 83 83 83 83 84 84 85 85 86 87
85 85 85 85 87 89 90 91 92 92 92 93 93 94 94 94 93 92 91 90 89 89 89 89 90 90 90 89 88 87 86 85 84 83 84 84 85 85 85 85 86 86
86 84 83 82 82 83 85 86 86 87 88 89 91 93 94 95 95 94 92 91 91 91 90 90 91 91 91 91 90 89 88 87 86 86 86 86 86 86 86 85 86 86
87 86 83 79 76 76 76 76 77 79 81 83 86 88 90 91 92 92 92 92 92 92 92 92 92 92 92 91 90 90 89 89 88 88 88 88 88 88 88 87 87 86
87 87 82 75 70 68 67 67 68 71 74 76 79 81 83 85 86 87 88 89 90 92 92 92 93 93 92 91 90 90 89 88 88 88 88 89 89 90 90 89 89 88
86 84 78 72 67 64 62 60 60 63 66 70 73 74 76 77 79 80 82 84 85 87 88 89 89 90 91 90 90 90 89 88 88 88 88 89 89 90 91 91 91 91
83 80 75 70 65 62 59 56 55 57 61 65 66 67 68 70 72 74 76 79 81 82 82 82 82 83 84 84 84 85 86 86 86 86 87 88 89 90 91 91 91 92
80 76 73 68 64 61 58 56 55 57 59 60 60 60 61 62 64 67 71 75 77 76 76 75 75 76 76 77 77 78 80 81 81 82 83 85 87 88 89 90 91 92

ECMWFNIL_250_spd_012.txt.gz
Wind_Speed
51 50 50 51 51 52 51 51 52 52 52 52 52 53 54 55 55 56 57 58 58 59 59 59 60 60 60 61 61 62 62 63 64 65 65 66 66 66 65 64 63 63
53 53 53 53 53 53 53 53 53 54 54 55 55 55 56 56 57 58 59 60 60 61 61 61 62 62 63 63 63 63 64 64 64 65 66 67 67 67 67 66 65 64
55 55 55 55 55 55 55 55 55 56 57 57 58 58 59 59 59 60 61 61 62 63 63 63 64 64 65 65 65 66 66 66 66 66 66 67 68 68 68 67 67 66
58 58 58 58 58 58 58 57 58 58 59 60 60 61 61 61 62 62 62 63 63 64 64 65 65 66 66 67 67 68 68 68 68 68 68 68 68 69 69 68 68 68
62 61 61 61 61 61 61 61 60 61 62 62 63 63 63 63 64 64 64 64 64 64 65 65 66 67 68 68 69 69 69 70 70 70 70 70 69 69 70 69 69 69
65 65 64 64 64 64 64 64 64 64 64 65 65 65 65 65 65 66 66 66 66 66 66 66 67 67 68 70 70 71 71 71 71 71 71 72 71 71 71 70 70 71
68 68 67 67 68 68 68 68 67 67 67 67 68 68 67 67 67 67 67 67 68 68 68 68 68 68 68 69 71 72 72 72 72 72 72 73 73 72 72 72 72 72
70 70 70 70 70 70 70 70 70 70 70 70 70 70 70 70 69 69 69 69 69 69 70 70 70 70 70 70 71 71 72 72 73 73 73 74 74 74 74 73 73 74
71 71 71 72 72 72 72 72 72 72 72 73 72 72 72 72 72 72 71 71 71 71 71 71 71 72 72 72 73 73 73 73 73 73 73 74 75 75 75 75 75 75
72 73 73 73 73 74 74 74 74 74 75 75 74 74 74 74 74 74 74 73 73 73 73 73 73 73 74 74 74 75 75 74 74 73 73 74 74 75 75 76 76 77
74 74 74 74 74 74 75 75 76 76 77 77 76 76 75 75 75 75 75 75 75 76 75 75 75 76 76 76 76 76 76 76 76 75 75 75 75 75 75 75 76 77
75 75 76 75 75 75 76 76 77 77 78 78 78 77 77 77 77 76 76 77 77 77 77 77 77 78 78 78 78 78 78 78 77 77 77 76 77 77 76 76 75 76
79 79 78 78 78 78 78 79 79 79 79 79 79 78 78 78 78 78 78 78 78 78 79 79 79 79 79 80 80 80 80 80 79 79 79 78 78 78 78 77 77 76
83 83 83 82 82 82 82 82 82 82 82 82 81 80 80 79 79 79 79 79 79 79 79 80 80 80 80 80 81 81 81 81 81 81 81 80 80 81 81 80 80 79
84 85 85 85 85 86 86 86 87 87 86 85 85 84 83 82 81 81 81 81 81 81 81 81 81 81 81 81 81 81 82 82 82 83 83 83 83 83 83 83 83 82
84 86 87 87 87 87 88 89 90 90 90 89 89 88 87 86 85 84 84 83 83 83 83 82 82 82 82 82 82 82 82 82 82 83 84 84 84 84 85 85 85 85
83 86 86 85 85 87 88 90 92 92 92 92 92 91 90 90 89 88 87 87 87 86 86 85 85 85 84 84 84 83 83 83 83 83 84 84 85 85 86 86 87 87
82 87 86 83 83 85 88 90 92 93 94 94 94 93 93 92 92 91 91 91 90 89 89 88 88 88 88 87 87 86 85 84 84 84 84 85 85 85 86 87 87 87
76 80 83 82 82 84 87 89 92 94 95 95 94 94 94 94 93 93 93 93 92 92 92 92 92 92 91 91 90 89 88 87 86 86 86 86 86 86 86 87 87 88
73 74 77 78 80 83 87 89 91 93 94 95 94 94 94 94 95 95 94 94 93 93 93 94 94 94 94 93 93 93 92 91 90 89 89 88 88 88 88 88 88 88
73 74 76 78 79 82 85 88 89 91 92 92 92 91 91 92 93 94 94 94 95 95 96 96 97 97 96 96 95 95 95 94 93 92 92 92 91 90 90 90 90 89
71 73 77 80 82 83 85 87 88 89 90 89 88 87 86 86 87 87 88 89 91 93 94 95 97 98 98 98 97 98 98 97 96 95 94 94 94 93 93 92 92 91
70 72 76 79 81 82 85 86 88 89 90 88 85 82 80 78 78 78 79 82 84 86 88 90 93 95 96 97 98 99 99 98 98 97 96 95 95 95 95 94 94 94
71 74 77 79 80 81 83 85 87 89 90 88 84 78 73 70 68 68 70 73 75 78 82 85 87 89 91 93 95 97 97 97 97 96 96 95 95 95 95 95 95 95
73 77 80 82 82 82 84 85 87 88 88 86 81 75 69 65 63 63 64 66 68 71 75 78 79 82 86 89 91 92 93 93 93 92 92 92 93 94 94 94 95 95
75 79 83 84 84 84 85 86 86 85 84 82 77 72 67 64 62 62 62 63 64 66 68 70 72 76 80 84 86 88 89 88 87 86 86 87 88 90 91 92 93 94

ECMWFNIL_250_spd_015.txt.gz
Wind_Speed
50 49 49 49 49 49 49 49 49 50 50 50 50 50 50 50 50 50 50 50 51 51 52 52 53 54 55 56 57 57 58 58 59 60 61 62 63 64 64 65 66 67
52 51 51 51 51 50 50 50 51 51 52 52 52 52 52 52 52 52 52 52 53 53 54 55 55 56 57 58 59 59 60 61 61 61 62 62 63 64 64 65 65 66
54 53 53 53 53 53 52 52 52 53 54 54 54 54 54 54 54 54 54 54 54 55 56 57 58 58 59 60 60 61 62 63 63 64 64 64 64 65 65 66 66 66
56 56 56 56 55 55 55 54 54 55 55 55 56 56 56 56 56 56 56 56 57 57 57 58 59 60 61 62 62 63 63 64 65 66 66 66 66 67 67 67 67 67
59 59 59 59 58 58 58 57 56 57 57 57 58 58 58 58 58 58 58 58 59 59 60 60 61 61 62 63 64 64 65 66 66 67 68 68 68 68 69 69 69 69
62 62 61 61 61 61 61 60 60 59 59 60 60 59 60 60 60 60 60 61 61 61 62 62 63 63 64 64 65 66 66 67 68 69 69 69 70 70 70 71 71 71
65 64 64 64 64 64 64 63 63 62 62 62 62 62 62 62 62 63 63 63 63 64 64 64 65 65 66 66 66 67 68 68 69 69 70 71 71 72 72 72 72 73
67 67 67 66 66 66 66 66 66 66 66 65 65 65 65 65 65 65 66 66 66 66 66 66 67 67 68 68 68 69 69 70 70 70 71 71 72 73 73 73 74 74
68 68 68 68 69 69 69 69 68 68 69 69 68 68 67 67 67 68 69 69 69 69 69 69 69 69 69 70 70 71 71 71 72 72 72 72 73 73 74 74 75 76
69 69 70 70 70 71 71 71 71 71 71 71 71 71 71 70 71 71 71 72 72 72 72 72 72 72 72 72 72 72 72 72 73 73 73 74 74 74 75 75 75 76
72 71 71 72 72 72 72 73 73 73 74 74 74 74 74 74 74 74 75 75 75 76 76 76 76 75 75 75 75 75 75 75 74 74 74 74 75 75 76 76 77 77
76 75 74 74 73 73 73 73 74 74 75 76 76 76 76 76 76 77 77 78 78 78 78 78 78 78 78 78 78 78 78 78 77 77 76 76 76 77 77 77 78 79
80 79 78 78 77 76 75 75 75 76 77 78 78 78 78 78 78 79 80 80 80 80 80 80 80 80 80 80 80 80 80 80 80 79 79 79 79 79 79 79 80 80
81 81 81 80 79 79 78 78 78 79 80 80 80 80 79 79 80 81 82 82 82 83 83 83 83 83 83 82 82 82 82 82 82 81 81 82 82 82 82 82 82 82
81 81 81 81 80 80 81 82 83 84 84 85 85 83 82 82 82 83 84 84 84 84 85 85 85 84 84 85 85 84 84 83 83 83 83 83 84 84 85 85 85 85
79 79 79 78 75 75 78 81 83 86 87 87 87 87 86 86 86 87 87 87 87 86 86 86 86 86 86 86 86 85 85 84 83 84 84 84 85 85 85 86 86 87
78 78 76 71 66 67 74 79 83 85 85 84 85 87 88 89 90 91 91 91 91 90 89 89 89 89 89 88 87 86 85 84 84 85 85 85 85 85 86 86 87 87
78 78 75 70 67 67 68 74 81 83 82 81 82 84 87 89 90 92 94 94 94 93 92 92 93 93 92 91 90 88 87 87 86 86 86 86 86 86 86 87 87 88
77 77 75 73 73 73 69 71 78 82 82 83 84 84 85 88 90 92 94 95 95 95 95 96 97 97 96 94 93 92 91 90 89 89 88 88 88 87 87 88 89 89
75 76 74 72 73 76 76 78 81 84 85 86 86 86 87 88 90 91 93 95 96 96 97 98 99 99 98 97 96 95 95 94 93 92 91 91 90 90 90 91 91 92
73 73 73 73 73 75 79 83 86 87 86 86 86 87 88 89 89 90 92 94 96 97 98 98 99 100 99 99 98 98 97 96 95 94 93 93 93 93 94 95 96 96
71 72 71 72 74 76 80 85 88 88 87 87 87 88 88 89 89 89 89 91 93 95 97 98 99 100 100 100 100 100 99 97 96 95 94 94 95 96 97 98 100 101
70 71 70 71 74 77 81 85 88 88 89 90 91 90 90 91 91 90 90 89 90 92 94 97 99 99 99 100 99 99 98 97 96 95 95 96 97 99 101 102 103 104
68 69 70 71 73 77 82 85 88 89 90 91 93 93 93 93 93 92 92 91 91 92 93 95 97 97 97 97 97 96 94 93 93 93 94 96 98 100 102 104 105 106
63 65 68 70 72 76 80 84 88 91 93 93 93 94 94 95 95 94 93 93 93 93 93 92 92 90 88 87 85 84 83 83 84 87 89 92 95 98 100 103 104 105
60 61 62 65 70 76 80 83 86 90 93 94 95 95 95 97 97 96 95 93 92 90 88 85 80 77 75 72 70 69 68 69 72 76 81 85 90 94 98 100 101 101

ECMWFNIL_250_spd_021.txt.gz
Wind_Speed
42 42 42 42 42 42 42 41 41 41 41 41 42 42 41 41 41 41 41 41 41 41 41 41 42 42 42 42 42 43 45 48 52 57 60 61 62 62 61 61 62 62
45 44 44 44 44 44 44 44 43 43 42 43 43 44 44 43 43 42 43 42 42 42 42 43 43 43 43 43 44 44 45 47 50 54 58 61 63 63 62 63 63 64
47 47 46 46 46 46 46 46 46 46 45 44 44 45 45 45 45 44 44 44 44 44 44 44 44 45 45 45 46 46 47 47 49 51 55 59 62 64 64 64 64 65
50 49 49 49 49 49 48 48 48 48 48 47 46 46 46 47 46 46 46 46 46 46 46 46 46 47 47 48 48 49 49 49 50 51 53 56 59 62 64 65 66 66
52 52 51 51 51 51 52 51 51 50 50 50 49 49 48 48 48 48 48 49 49 49 49 49 49 49 49 50 50 51 51 51 52 52 53 54 56 59 61 64 66 67
54 54 53 53 53 54 54 54 53 53 52 52 52 52 51 51 51 50 50 51 51 52 52 52 52 52 52 52 53 53 54 54 54 55 55 56 56 58 59 61 63 65
57 56 55 55 55 56 56 56 56 55 55 54 54 54 54 54 54 54 54 54 53 54 54 55 55 55 55 56 56 57 57 57 57 58 58 59 58 59 59 60 61 62
61 60 59 59 58 58 58 58 58 57 57 57 57 57 57 57 57 58 58 57 57 57 57 57 57 58 59 59 60 60 61 61 61 61 61 62 62 61 61 61 62 62
65 64 63 63 63 63 62 60 59 59 59 59 59 59 59 60 60 60 61 61 61 60 60 60 61 61 62 63 63 64 64 64 64 64 64 64 64 64 64 64 64 65
66 66 66 66 67 67 66 64 63 62 61 61 61 61 61 62 62 63 64 64 64 64 64 65 65 65 65 66 66 67 67 67 67 66 66 66 66 66 66 67 67 67
66 67 66 67 68 69 69 68 67 65 65 64 63 63 63 64 64 65 66 67 67 68 68 69 69 69 69 69 69 70 70 70 69 69 69 68 68 68 68 68 68 69
65 66 65 66 68 69 71 71 69 68 68 67 66 65 65 66 67 68 68 69 70 70 71 72 73 73 73 73 73 73 73 72 72 72 72 72 71 71 71 70 70 70
65 65 65 65 66 68 70 71 70 70 70 70 69 67 68 69 70 71 71 72 72 73 74 75 76 77 77 76 75 75 75 75 75 75 75 75 75 74 74 73 73 73
66 66 65 65 65 67 68 69 70 70 70 70 68 68 70 71 71 72 74 75 76 76 77 78 79 80 79 79 78 78 79 79 79 78 78 78 78 77 77 77 76 76
67 67 66 65 65 66 66 67 68 69 69 69 67 67 69 70 72 75 76 77 79 81 81 83 83 83 81 80 80 81 82 82 81 81 81 81 81 81 80 80 80 80
68 68 68 67 66 66 66 67 67 67 68 68 68 68 69 69 73 77 77 78 82 85 85 86 86 85 83 82 82 83 84 84 84 84 84 84 83 84 83 83 83 83
70 70 69 69 69 68 68 68 68 67 67 68 68 70 71 71 74 76 76 78 81 83 85 87 88 88 86 84 84 85 85 86 86 86 86 86 86 86 86 86 86 86
72 72 71 71 71 70 70 69 69 68 69 68 69 71 73 74 76 77 78 79 80 81 83 85 87 89 89 89 88 88 88 88 87 87 88 88 88 88 88 89 88 88
74 73 72 72 72 72 72 71 71 70 70 70 70 71 73 75 78 80 81 82 83 84 84 84 85 86 88 90 91 91 91 90 90 90 90 90 90 89 90 90 90 90
76 75 74 73 73 73 73 72 72 72 72 72 72 72 73 75 78 81 83 85 86 88 88 87 87 87 87 88 89 91 92 93 93 93 93 92 92 92 92 92 92 92
76 75 74 73 73 73 73 73 73 74 74 74 74 73 74 76 78 80 82 85 88 90 91 91 90 90 90 90 90 90 91 93 94 95 95 96 96 96 95 95 95 94
76 75 74 74 74 73 73 73 74 74 75 75 75 75 74 76 78 79 81 83 86 88 90 92 93 93 94 94 93 92 92 92 93 94 95 96 97 97 98 98 99 98
76 75 75 74 74 74 74 74 74 75 75 75 76 76 76 76 77 78 80 81 83 85 87 89 92 94 95 95 94 94 94 94 94 94 94 94 94 94 95 96 98 99
76 75 75 75 75 74 74 75 75 75 75 76 76 77 77 77 78 78 78 78 80 82 84 86 89 91 93 94 95 96 96 96 97 97 97 96 95 94 94 94 94 95
75 75 75 74 74 74 75 75 75 75 75 76 76 77 77 78 78 77 77 76 77 79 81 83 86 87 89 91 93 95 96 97 98 99 99 99 99 98 97 95 94 94
74 74 74 74 73 74 75 75 76 76 75 75 76 76 77 77 77 76 75 76 77 78 79 80 82 84 85 87 89 91 94 95 97 98 99 99 99 99 99 98 96 95

ECMWFNIL_250_spd_024.txt.gz
Wind_Speed
44 44 44 44 44 44 44 44 43 43 42 41 40 39 39 39 39 39 40 41 41 41 41 41 41 41 42 42 43 43 44 44 46 48 51 54 57 58 59 59 60 59
47 47 47 46 46 46 46 46 46 45 45 44 43 42 41 41 41 41 42 42 43 43 43 43 43 43 43 44 44 45 45 45 46 47 49 52 54 57 58 59 61 62
49 49 50 50 49 49 49 48 48 48 47 47 46 45 45 44 43 43 43 44 44 45 45 45 45 45 45 45 46 46 47 47 47 47 49 51 53 55 56 58 59 63
50 51 51 51 51 51 51 51 51 50 50 49 49 48 48 47 47 46 45 45 46 47 47 47 47 47 48 48 48 48 49 49 49 49 50 51 53 54 55 56 58 60
52 52 53 52 52 53 53 52 52 52 52 51 51 50 50 50 50 49 49 48 48 48 49 49 50 50 50 50 51 51 51 51 51 51 52 52 52 54 55 56 57 58
54 54 54 54 54 54 54 53 53 53 53 53 53 53 52 52 52 52 52 51 51 50 51 52 52 52 52 52 53 53 53 53 53 53 54 54 54 54 55 56 57 58
57 57 56 56 55 55 54 54 54 54 54 54 55 55 55 55 55 54 54 54 54 54 53 54 54 55 55 55 55 55 55 55 56 55 55 56 56 56 56 57 58 58
61 60 60 59 59 58 57 56 55 55 55 56 56 56 57 57 57 57 57 57 57 57 57 56 57 57 57 58 58 58 58 58 57 58 58 57 58 58 58 58 59 59
62 62 63 62 62 62 62 60 59 58 58 58 58 58 58 59 59 59 60 60 60 60 59 60 60 60 60 60 60 60 60 60 60 59 59 59 59 60 60 60 60 61
63 63 64 64 64 64 65 64 64 63 62 61 61 61 61 61 61 61 62 63 63 62 62 62 63 63 64 64 63 63 63 63 62 62 61 61 61 61 62 62 62 62
61 62 62 63 64 65 67 67 67 66 66 65 64 65 64 64 63 64 64 64 65 65 65 65 66 67 67 67 67 67 67 66 65 65 64 64 64 64 64 64 64 65
60 60 60 60 62 64 66 67 67 67 67 67 67 67 67 67 67 67 66 66 66 67 67 68 69 70 70 70 70 70 70 69 69 68 68 68 67 67 67 67 67 67
60 59 59 59 60 61 63 65 65 65 66 67 69 69 69 70 70 69 69 69 69 69 70 71 72 72 73 73 73 73 73 73 73 73 73 72 71 71 70 70 69 69
61 60 60 60 60 61 62 63 64 63 64 65 67 69 70 71 71 71 72 72 72 72 73 74 74 74 75 76 77 77 77 77 77 77 76 76 75 75 74 74 73 73
64 63 62 62 62 62 62 63 63 63 62 63 64 65 67 68 69 71 72 73 73 74 76 77 77 77 79 80 80 80 80 80 80 80 79 79 79 78 78 78 77 77
66 66 65 65 64 64 64 64 64 63 63 62 62 63 64 65 67 69 71 71 72 74 77 79 79 81 82 83 83 82 81 81 82 82 82 82 82 82 81 81 81 81
69 69 68 67 67 66 66 66 65 65 65 64 63 64 64 64 66 68 69 70 72 74 76 77 78 81 83 84 85 84 84 84 83 84 84 84 84 84 84 84 85 84
71 71 71 70 70 69 69 68 68 67 67 67 66 66 65 65 66 67 68 70 71 73 74 75 77 79 81 83 85 86 87 87 86 86 86 85 86 86 87 87 88 88
73 72 72 72 72 72 71 71 70 70 70 69 69 68 67 67 67 67 68 69 70 71 73 74 75 77 78 80 82 84 87 88 88 88 88 88 88 88 88 89 89 90
73 73 73 73 73 73 73 73 73 72 72 72 71 70 70 69 69 69 69 70 71 71 72 72 73 75 76 77 79 81 84 86 87 88 89 90 91 91 91 91 91 92
75 75 74 74 74 74 74 74 74 74 74 74 73 73 72 71 71 71 71 71 72 72 72 72 72 73 74 76 78 80 82 83 84 86 88 89 90 91 92 93 94 94
77 76 76 76 75 75 75 75 75 75 75 75 75 74 74 73 73 72 73 73 74 73 73 72 72 72 73 75 77 79 81 83 84 86 87 89 89 90 90 92 93 94
79 78 77 77 77 76 76 76 76 76 76 76 75 75 75 75 74 74 74 75 75 74 73 73 73 73 74 75 77 79 81 83 85 87 89 90 91 91 92 92 92 93
79 78 78 77 78 77 77 77 77 77 77 76 76 76 75 75 75 75 75 75 75 74 74 73 73 74 75 76 77 79 81 83 85 87 89 90 91 92 93 93 94 94
79 78 78 78 78 78 78 77 77 77 77 77 77 76 76 76 76 76 76 76 75 74 74 74 74 74 75 77 78 80 81 83 84 85 87 88 90 91 92 93 94 95
78 78 78 78 78 78 78 78 78 78 78 78 78 78 77 77 77 77 76 76 75 75 75 74 74 75 76 77 78 79 80 82 83 84 84 85 86 88 90 92 93 94

ECMWFNIL_250_spd_027.txt.gz
Wind_Speed
44 44 44 44 43 43 42 42 42 41 40 40 39 39 38 38 38 38 38 38 38 38 39 40 41 42 43 43 43 44 44 44 46 48 50 53 57 59 60 61 63 63
46 47 47 47 47 47 46 45 44 44 44 44 43 42 42 41 41 41 41 41 40 40 40 41 42 43 44 44 45 45 45 45 45 47 48 50 53 57 60 62 63 64
49 49 49 49 50 50 49 48 47 47 47 46 46 46 45 45 44 44 44 43 43 42 42 42 43 43 44 46 46 47 47 47 46 47 48 49 51 54 58 61 63 65
50 50 50 51 51 51 51 50 50 50 50 49 49 48 48 48 47 47 46 46 45 45 45 44 44 45 45 46 47 48 49 49 49 48 49 49 51 52 55 58 61 64
50 51 51 51 51 51 52 51 51 51 52 52 52 52 51 51 50 50 49 49 48 48 48 48 47 47 47 47 48 49 50 51 51 51 50 50 51 52 53 56 58 62
51 51 51 51 51 51 52 52 52 52 52 53 54 54 55 54 54 53 53 52 52 52 51 51 51 50 50 49 50 50 51 52 53 53 53 53 52 52 53 54 56 59
54 53 53 53 53 53 52 52 52 52 53 53 54 55 55 56 56 56 56 55 55 55 55 54 54 54 53 52 52 52 53 54 54 55 55 55 55 55 55 55 56 57
57 57 57 57 57 56 55 54 53 54 54 54 55 55 56 57 57 57 57 57 57 58 57 57 57 57 56 56 55 55 55 55 55 56 56 56 57 57 57 57 57 57
60 61 61 60 60 60 58 57 56 56 56 57 57 56 57 57 57 58 59 58 59 59 59 60 60 60 59 58 58 58 58 57 57 57 58 58 58 58 58 59 59 60
60 61 62 61 61 62 61 61 60 60 60 60 60 59 59 58 57 58 60 59 60 61 61 61 61 62 62 61 61 61 61 61 60 60 60 60 60 60 60 60 61 62
58 60 61 62 63 62 61 61 62 63 64 64 62 61 61 61 59 59 60 60 61 61 62 63 63 63 64 64 64 64 64 63 63 63 62 62 62 62 62 62 62 62
54 53 55 59 61 61 60 61 63 63 64 66 66 64 63 63 63 63 62 62 61 61 62 63 63 64 65 66 66 67 67 66 66 66 66 66 66 65 65 65 65 64
52 50 52 56 58 57 54 55 59 61 62 64 64 64 65 66 66 67 67 66 66 64 63 63 64 66 67 68 68 69 68 68 68 69 69 69 69 69 68 68 68 68
56 57 59 60 59 54 47 46 51 53 50 50 54 59 63 65 67 69 70 70 70 68 63 61 64 67 68 70 71 71 70 69 70 71 72 72 72 71 71 72 71 71
59 60 62 62 60 58 55 54 55 50 42 41 47 52 53 55 62 69 70 69 71 70 65 63 66 69 71 73 74 73 73 72 73 73 74 74 74 74 75 75 75 75
62 62 63 63 63 62 61 61 61 59 54 53 57 58 53 51 56 64 67 66 67 67 65 65 69 72 74 76 76 76 76 76 76 77 76 75 76 77 78 78 78 79
65 65 65 66 66 65 65 64 64 63 63 64 65 65 63 61 62 65 66 66 65 62 59 60 65 67 71 74 75 76 77 78 79 80 79 78 78 79 80 81 81 82
68 68 68 69 69 68 68 68 67 66 67 67 68 68 67 68 68 69 68 67 67 65 62 63 65 67 70 73 74 75 77 78 80 81 81 81 81 82 83 84 84 84
70 70 71 71 72 71 70 70 70 71 70 70 71 70 69 69 68 69 69 68 68 68 68 68 67 68 71 73 73 74 75 76 77 78 79 81 82 84 85 87 87 87
72 72 72 73 73 73 73 73 73 74 74 74 73 73 73 72 71 71 71 71 70 69 70 69 67 68 73 74 73 74 75 76 75 75 76 79 81 83 86 88 89 89
73 73 73 73 74 74 74 74 75 75 76 76 76 75 75 74 74 73 72 72 72 72 71 69 67 71 75 75 74 75 75 76 75 74 75 78 79 81 84 87 88 89
75 75 74 74 74 74 74 74 75 76 76 77 77 76 76 75 75 74 74 74 74 73 71 69 70 74 75 75 75 76 76 76 75 74 76 78 80 81 83 84 86 87
77 77 76 75 75 76 76 76 76 76 77 78 78 77 77 77 76 75 75 75 74 72 70 71 73 75 75 75 75 76 76 77 76 76 78 80 81 82 83 83 84 85
79 79 78 77 77 77 77 77 77 77 78 78 79 79 78 78 78 77 77 75 73 73 73 73 74 74 74 74 75 75 76 77 77 78 80 81 81 81 82 83 84 84
79 79 79 78 78 78 78 79 79 79 79 79 79 79 79 79 79 78 77 75 74 75 75 74 74 74 74 74 74 75 76 78 79 80 80 81 81 81 81 82 83 84
79 78 79 79 79 79 79 79 79 80 80 80 80 80 80 80 79 78 77 75 76 77 76 75 75 74 74 74 75 76 78 79 80 80 80 80 81 81 82 82 83 84

ECMWFNIL_250_spd_033.txt.gz
Wind_Speed
45 45 45 44 44 44 43 43 43 43 43 43 43 43 41 40 39 39 39 38 38 38 37 37 37 37 38 38 39 39 39 39 38 39 40 40 40 40 42 44 46 48
47 46 46 46 46 46 46 46 45 44 44 44 44 44 44 43 43 42 41 40 40 39 39 39 38 38 38 39 39 40 41 41 41 40 41 41 41 41 41 42 43 45
47 46 46 47 48 49 49 49 48 46 45 45 45 45 45 45 45 44 44 43 42 42 41 41 41 40 41 40 40 40 41 42 43 43 43 43 43 43 42 42 43 43
46 45 45 46 47 49 50 50 50 49 47 46 45 45 45 46 46 46 46 45 45 44 44 43 43 42 43 43 42 42 42 42 43 44 44 45 45 45 45 44 44 45
48 47 46 44 44 47 49 50 51 51 50 48 47 46 46 46 46 46 47 47 46 46 46 46 46 45 45 45 45 45 45 44 44 44 45 45 46 46 47 47 47 47
53 53 50 46 44 44 46 47 48 49 50 50 49 49 48 47 47 47 47 47 47 47 47 47 48 48 48 48 48 47 47 47 47 47 47 46 46 47 47 48 49 49
58 58 56 53 50 48 46 47 47 46 48 50 50 50 51 51 50 50 49 48 48 47 48 49 49 49 50 50 50 50 50 50 50 50 50 49 49 49 49 49 50 50
61 59 58 57 56 54 52 51 48 46 46 47 48 49 52 54 54 53 52 51 50 50 50 51 51 51 51 51 51 51 51 52 52 52 52 52 52 52 52 52 52 52
62 61 58 55 54 54 56 55 51 48 47 48 50 53 55 57 57 56 55 54 53 53 53 53 53 53 53 53 52 53 53 53 53 54 55 55 55 54 54 54 54 54
62 62 60 58 58 59 62 63 60 58 58 59 61 62 61 60 60 58 56 56 56 57 58 57 56 55 54 55 55 54 54 55 55 55 56 57 57 56 56 56 56 56
53 59 62 65 68 69 69 69 67 66 67 68 69 68 64 62 61 59 57 57 58 59 61 62 60 58 57 58 58 57 56 57 57 57 57 57 57 57 58 59 59 58
52 60 65 67 69 70 70 69 69 68 67 68 68 66 62 60 60 59 58 57 59 60 61 62 62 62 62 63 63 61 60 59 59 58 57 58 59 59 59 60 61 61
52 56 61 63 64 64 64 65 64 63 63 63 62 61 59 56 56 57 56 55 57 59 60 61 61 61 63 65 66 66 64 63 61 60 60 60 60 60 61 61 62 63
52 54 57 59 58 57 58 60 59 58 58 58 57 57 56 54 53 53 53 53 53 54 56 57 58 59 60 61 63 66 67 66 64 64 63 63 63 62 62 63 63 64
55 56 57 57 57 57 57 58 59 58 57 56 56 55 55 54 52 52 52 52 51 51 53 54 53 54 56 57 58 61 64 65 65 65 65 65 65 65 65 66 66 65
55 56 56 56 57 57 57 57 58 57 57 57 56 56 55 55 53 52 52 53 52 51 53 53 50 48 50 52 54 57 59 62 63 64 65 65 65 65 66 68 69 68
55 56 56 56 56 56 57 57 57 57 57 57 57 57 57 56 56 55 54 54 54 53 54 54 51 49 50 51 53 55 58 61 62 62 63 65 66 66 65 66 68 69
55 56 56 56 56 56 56 57 57 57 57 58 58 58 58 58 58 58 57 56 56 56 57 57 56 56 55 55 56 57 58 61 64 64 63 65 68 68 67 65 64 64
56 56 56 57 57 58 58 58 59 59 59 59 59 59 59 60 60 60 60 59 59 59 60 61 61 62 63 62 63 63 61 61 64 66 66 67 68 69 70 69 66 63
57 57 58 58 59 59 60 60 60 61 61 61 62 62 61 62 62 62 62 62 62 62 63 64 64 66 68 70 70 70 68 66 66 68 69 69 70 70 71 73 72 69
59 60 60 60 61 61 61 62 62 63 63 63 64 64 64 64 64 64 64 64 64 65 65 66 67 69 72 74 75 75 74 73 72 72 72 72 73 72 73 75 77 76
62 62 63 63 63 63 63 64 64 64 65 65 65 66 66 66 66 66 66 65 66 67 68 69 70 71 73 75 76 77 77 77 76 76 76 77 77 78 78 79 80 81
65 65 66 66 65 65 65 66 66 66 66 66 66 67 67 67 67 67 67 67 68 70 70 71 72 73 74 75 77 78 79 80 79 79 80 81 82 82 83 83 83 84
68 68 69 68 68 68 68 68 68 68 68 68 68 68 68 68 68 68 68 69 70 71 72 73 74 75 75 76 77 78 80 81 81 81 82 83 84 85 86 86 86 87
71 71 71 70 70 70 70 71 71 71 71 71 70 70 69 68 68 68 69 70 71 72 73 74 75 76 77 77 77 78 79 80 81 82 83 83 84 86 87 88 88 89
73 73 73 72 73 73 73 73 73 74 74 73 72 71 70 69 68 68 69 70 71 72 73 74 75 76 77 78 78 78 79 80 80 81 82 83 84 85 87 87 88 89

ECMWFNIL_250_spd_036.txt.gz
Wind_Speed
44 44 43 40 38 40 42 43 43 42 41 40 40 38 37 37 38 39 40 41 40 40 40 39 38 37 36 36 36 36 36 36 36 37 37 38 37 37 36 37 38 39
45 44 42 41 40 41 43 45 44 44 44 44 43 42 40 39 39 39 40 41 41 41 41 41 40 40 39 39 38 38 38 38 38 38 38 38 39 39 39 38 38 39
47 43 41 42 43 44 45 47 47 47 47 47 46 45 44 42 41 41 41 41 42 42 43 42 42 42 42 42 41 41 40 40 40 39 39 39 40 41 41 41 40 40
49 45 43 44 47 48 48 49 50 50 50 49 48 48 48 46 44 42 42 42 42 43 43 44 44 43 44 44 44 44 43 43 43 42 42 42 42 42 43 43 44 43
53 49 47 47 48 49 49 50 52 53 53 52 50 50 50 50 48 45 44 43 44 44 44 44 44 44 45 45 46 46 46 46 46 45 45 44 44 44 44 44 45 45
56 54 52 51 51 50 50 51 53 56 57 56 54 53 52 52 52 50 48 46 46 46 45 44 44 44 44 46 47 48 48 49 49 49 48 48 47 47 47 46 46 47
59 58 57 56 56 55 54 54 55 57 58 59 58 58 56 55 54 52 51 49 47 46 47 46 45 44 45 45 46 48 49 50 51 52 51 51 51 50 50 49 49 49
62 62 60 58 59 60 60 60 61 61 61 62 61 61 61 60 58 56 54 52 51 49 48 47 47 47 47 47 48 49 50 50 52 53 53 54 54 54 53 53 52 52
64 62 62 61 62 65 66 66 67 68 68 68 66 64 64 64 64 63 61 60 57 53 49 48 48 47 48 49 52 53 54 53 53 53 53 54 56 56 56 56 56 56
66 66 66 67 68 69 65 63 66 70 72 72 70 68 66 66 67 67 66 64 60 54 50 50 51 52 54 57 59 59 59 58 57 56 55 55 56 57 58 58 58 58
65 63 58 57 58 56 52 53 59 65 67 67 68 69 69 68 68 69 68 66 63 60 58 59 61 63 65 66 65 63 62 62 62 60 59 58 57 57 57 58 59 60
61 56 47 42 41 41 45 52 57 61 62 60 61 65 68 68 68 68 67 67 66 66 67 68 69 69 68 67 65 62 61 63 65 65 64 62 60 59 59 59 59 60
60 58 54 51 51 52 56 58 57 58 57 53 53 58 63 64 65 65 66 67 69 69 69 69 68 67 64 62 60 59 60 62 65 67 66 65 64 63 62 62 61 61
59 59 58 58 61 62 61 58 56 56 53 48 49 54 59 60 62 65 67 68 68 68 66 65 63 62 61 59 57 57 59 61 64 66 66 66 66 65 65 65 65 64
59 59 58 58 60 60 57 56 56 56 54 54 56 60 63 64 66 67 67 67 65 64 62 61 59 59 58 58 56 56 57 59 62 64 65 66 66 65 66 66 67 67
60 60 59 58 59 60 58 57 57 58 58 60 62 64 65 65 65 65 65 65 64 62 61 60 60 59 58 58 57 56 56 58 60 62 63 64 64 65 65 66 67 68
61 61 60 60 60 62 62 62 62 63 64 65 66 67 67 66 66 65 65 65 64 64 63 62 61 60 60 59 58 58 58 58 59 60 62 62 63 63 64 65 66 67
62 62 62 62 62 63 64 64 65 66 66 67 68 68 68 67 66 65 64 64 65 65 64 63 63 62 61 60 60 60 60 60 59 60 62 63 64 64 64 64 65 65
64 63 63 63 64 64 64 65 65 66 66 66 67 66 66 65 65 64 64 64 64 64 64 64 64 64 63 63 62 61 61 62 62 62 62 64 66 66 65 65 65 65
64 64 64 64 65 65 66 66 66 65 65 65 65 65 65 64 64 64 64 64 64 64 64 64 65 65 65 65 64 63 62 63 64 65 65 65 66 67 67 66 66 66
65 64 64 65 65 66 66 66 66 65 64 64 64 64 64 64 64 64 64 65 65 66 66 66 66 67 67 67 67 65 65 65 66 67 68 68 68 69 70 70 70 70
65 65 64 64 65 66 66 66 65 65 64 64 64 64 64 64 65 65 66 67 68 68 68 68 68 69 69 70 69 69 69 69 69 69 70 71 71 72 73 73 74 75
66 66 65 65 65 65 65 65 65 65 64 64 64 65 65 65 66 67 68 68 69 69 70 70 71 71 71 71 72 72 72 72 72 73 73 73 74 75 76 76 77 77
66 67 66 66 65 65 65 65 66 66 66 66 66 66 66 67 67 68 69 70 70 71 71 72 72 73 73 73 74 74 74 74 74 75 76 76 76 77 78 79 80 80
65 66 66 66 66 66 66 67 68 68 68 68 68 68 68 67 68 69 70 71 72 73 73 73 74 74 75 75 76 76 76 76 76 76 77 77 78 79 80 81 82 83
65 66 67 67 67 68 68 69 70 70 71 71 71 70 69 69 70 71 73 74 75 75 76 76 75 75 75 76 77 77 77 78 78 78 78 78 78 79 81 82 83 84

ECMWFNIL_250_spd_039.txt.gz
Wind_Speed
42 42 44 46 46 44 42 41 43 44 43 42 40 39 38 37 36 36 37 38 38 38 37 37 37 36 36 36 36 36 36 35 34 33 32 31 31 31 31 32 32 32
44 43 43 44 45 45 43 42 44 45 45 44 43 43 44 43 41 40 40 41 41 41 40 39 39 38 37 36 36 37 37 38 38 37 36 35 34 34 33 33 33 33
47 48 47 46 44 45 45 44 44 44 45 46 47 48 47 47 46 45 44 44 43 43 42 41 41 40 39 38 38 38 38 38 39 39 40 39 39 38 37 36 36 35
51 52 52 51 49 50 49 48 47 45 44 45 47 49 48 48 48 48 48 47 45 44 43 43 43 42 41 40 40 40 39 39 40 40 41 41 42 42 42 41 40 39
55 56 56 55 55 56 57 56 54 51 48 47 47 48 47 46 47 48 48 48 47 47 47 47 47 46 45 43 42 42 42 42 41 41 42 43 43 44 44 44 44 43
58 59 59 57 55 56 59 61 61 58 55 53 52 51 49 48 49 50 50 50 50 50 50 50 50 49 49 47 46 44 44 44 43 43 43 43 44 45 46 46 46 46
59 60 60 57 54 54 57 60 62 61 59 58 58 57 56 56 56 56 56 57 56 54 53 53 53 52 52 51 50 48 46 45 45 45 45 45 44 45 46 47 48 48
60 60 60 59 57 58 58 58 60 61 60 60 60 60 60 62 62 62 62 62 61 60 58 58 57 56 55 54 53 53 51 50 49 49 49 48 47 45 46 46 47 48
63 62 61 61 62 62 61 61 61 62 63 63 63 63 64 64 65 65 66 65 65 66 66 65 63 61 59 57 56 55 55 56 55 54 52 51 49 47 45 44 45 47
64 63 62 63 63 64 65 65 64 63 63 63 64 65 66 67 68 69 69 69 69 70 69 65 63 63 62 60 59 58 57 57 57 57 55 53 51 49 48 48 50 52
61 61 61 61 61 62 63 63 63 63 62 62 61 62 64 66 67 68 68 68 68 67 66 62 59 60 60 59 59 59 59 59 59 59 58 56 54 53 54 56 58 60
58 59 59 58 58 58 58 58 58 58 57 56 56 55 57 60 62 61 61 58 53 49 52 54 52 52 55 56 58 60 60 60 61 61 61 61 61 61 63 65 65 65
56 57 57 57 55 54 52 52 53 53 51 51 51 50 54 58 58 57 56 53 46 42 46 51 50 51 52 53 56 59 60 60 60 60 61 63 65 67 68 69 68 66
56 56 56 57 55 53 52 50 52 53 52 50 49 50 54 58 58 56 55 54 53 55 58 61 62 61 57 53 52 53 56 58 58 59 60 62 65 67 68 68 66 63
56 55 56 56 56 56 55 53 53 55 54 51 50 51 54 57 58 59 58 58 60 63 65 67 69 67 62 56 53 52 54 56 57 58 59 60 62 63 64 64 62 60
57 57 57 57 57 58 58 56 55 57 59 58 58 58 58 59 61 61 63 65 67 67 67 68 69 67 63 60 58 57 58 58 58 58 59 59 59 59 60 61 61 60
60 59 59 60 60 60 60 60 59 61 63 65 66 66 66 67 67 67 67 68 68 68 69 69 68 67 65 64 63 62 62 62 62 63 62 61 60 60 60 60 60 60
62 62 62 63 63 64 64 64 64 65 67 69 70 71 71 71 70 69 68 67 66 67 68 69 70 69 68 67 67 67 67 68 68 67 65 64 63 63 62 62 61 61
64 64 65 65 66 66 66 67 67 68 69 71 71 72 72 72 71 70 69 68 68 69 69 70 71 71 71 72 72 72 72 72 70 68 67 65 65 64 64 63 62 62
66 67 67 67 68 68 68 68 69 70 71 72 72 72 72 72 72 71 71 71 71 72 73 74 74 75 76 76 76 75 73 72 70 68 67 66 66 65 65 64 64 63
68 68 69 69 69 69 70 70 71 71 72 72 73 72 72 72 72 72 72 72 72 73 74 75 76 76 77 76 75 74 72 70 69 68 67 67 67 66 66 66 66 66
67 68 68 68 69 69 70 70 71 71 72 72 72 72 71 72 72 72 72 72 72 73 73 74 75 75 75 75 73 72 70 69 68 68 68 68 68 68 69 69 69 69
63 64 65 66 67 68 69 69 70 71 71 71 70 70 70 70 71 71 72 72 72 72 73 74 74 74 74 74 72 71 70 69 68 68 68 69 69 70 70 71 71 72
59 60 62 64 66 67 68 68 69 70 70 70 69 68 68 68 69 70 71 71 71 72 73 73 74 74 74 73 72 71 70 70 69 69 69 70 71 71 72 73 73 74
60 61 62 64 65 66 67 68 68 69 69 68 68 67 66 67 67 68 69 70 71 72 72 73 73 73 73 72 72 72 72 72 72 72 72 72 72 73 74 75 76 76
63 63 64 64 65 65 66 66 67 68 68 68 68 68 67 67 67 68 69 70 70 71 72 72 72 73 73 73 73 74 74 74 74 74 74 74 74 75 76 77 78 79

ECMWFNIL_250_spd_042.txt.gz
Wind_Speed
49 49 47 46 48 50 49 46 43 41 40 39 38 36 35 34 34 35 36 36 35 34 33 34 35 36 36 35 34 32 31 30 29 29 29 29 30 30 30 30 29 28
53 52 50 47 46 47 49 49 47 45 44 43 42 41 39 37 35 36 38 39 40 39 39 39 40 40 41 40 38 35 33 31 31 31 31 31 31 32 32 32 32 32
56 56 56 54 53 52 52 51 49 48 46 45 44 43 42 40 39 39 40 41 42 42 42 42 43 44 45 44 42 38 35 34 33 33 33 33 33 33 34 34 35 35
57 59 60 60 60 59 58 56 53 50 48 46 45 44 43 42 42 42 43 43 43 44 44 44 45 46 47 46 44 41 39 38 37 36 36 36 36 35 35 36 37 38
57 60 62 63 63 62 62 60 57 54 52 50 49 48 47 46 46 46 47 47 47 48 48 48 48 49 49 48 47 45 44 43 42 41 40 39 39 39 38 38 38 39
58 58 60 61 62 61 61 61 60 57 54 52 51 51 50 49 49 50 50 51 52 52 52 52 52 52 52 52 51 51 50 48 47 46 44 43 43 43 42 41 40 39
58 57 57 58 60 60 61 62 63 61 59 55 53 51 50 50 50 51 52 53 54 55 54 54 54 55 55 56 56 55 55 54 53 52 51 49 48 48 48 47 44 42
63 61 60 60 60 60 61 63 64 63 62 59 56 53 53 53 53 54 55 56 57 57 56 56 56 57 58 58 59 59 58 58 57 57 56 54 54 55 54 53 50 47
67 67 66 65 65 64 63 63 63 63 63 63 61 60 59 59 59 60 61 62 62 62 60 59 59 60 60 61 62 62 61 60 60 60 59 59 59 59 57 55 53 51
66 67 68 68 69 68 67 66 66 65 65 66 65 64 63 63 64 64 65 66 67 65 64 63 62 62 62 63 63 63 62 62 62 61 61 60 59 58 56 55 54 53
65 66 67 67 68 67 67 67 67 67 68 68 67 65 63 63 64 65 66 67 67 66 65 65 64 63 63 63 62 62 63 63 62 59 57 54 52 52 52 51 52 53
65 65 65 65 65 64 64 65 66 66 66 66 65 63 62 62 63 63 64 65 64 64 65 65 64 63 63 63 62 62 64 64 59 53 49 47 46 46 45 47 50 53
62 63 62 62 62 61 62 62 63 63 63 62 61 61 60 61 62 62 62 62 63 63 63 63 62 61 61 61 61 61 62 62 57 52 49 48 47 45 46 48 50 51
61 61 61 60 58 57 58 58 59 60 60 58 58 58 58 58 57 57 56 57 58 59 60 60 60 60 59 58 58 58 58 60 59 56 53 52 50 49 50 51 51 49
60 60 60 58 56 56 56 56 56 57 57 56 56 55 54 54 54 53 53 54 55 56 58 59 60 60 59 57 56 56 56 57 60 61 59 57 55 53 51 51 51 50
61 60 60 59 58 58 58 58 58 58 57 57 57 56 55 56 56 57 57 57 58 59 61 62 62 61 59 57 56 55 56 57 59 63 65 63 59 56 53 52 51 51
62 62 62 61 60 60 60 60 60 60 59 59 59 60 60 59 59 59 59 59 60 61 62 62 62 61 59 58 57 57 58 60 62 66 68 67 63 59 55 54 53 53
64 63 63 63 63 63 63 62 63 63 63 63 63 64 64 63 62 61 60 61 61 61 62 61 61 60 59 59 60 61 63 66 67 69 69 68 66 62 59 57 57 57
66 65 65 65 65 65 66 66 66 67 68 68 68 68 67 67 66 65 64 64 63 63 63 63 63 63 63 64 66 67 69 69 70 70 70 69 68 66 64 62 62 62
69 68 68 67 67 68 68 68 68 69 69 70 69 69 69 68 68 68 68 68 68 68 67 68 68 68 69 69 70 70 70 70 70 70 70 70 69 69 68 67 67 67
71 71 70 70 70 70 69 69 69 69 69 69 69 69 69 69 70 70 70 71 71 71 71 71 71 72 72 72 71 70 70 69 69 69 70 70 71 71 72 72 72 72
69 69 70 70 71 71 70 70 70 70 70 70 70 71 71 72 72 72 72 73 73 73 73 73 73 73 73 73 72 71 70 69 68 68 69 70 71 73 74 75 75 75
65 65 66 67 67 68 70 71 71 72 72 72 73 73 74 74 74 75 75 75 75 75 74 74 74 74 74 73 73 72 70 69 68 68 68 69 70 72 73 74 74 74
60 61 62 62 63 65 67 68 68 69 70 71 72 73 74 75 75 75 75 75 75 75 75 75 74 74 73 72 71 70 70 69 69 68 68 69 70 71 72 72 73 73
59 59 60 60 62 63 64 65 65 65 66 66 68 69 71 72 72 73 73 73 73 73 73 73 73 72 71 70 69 68 68 68 68 68 69 69 70 70 71 72 72 73
62 61 61 62 62 62 62 63 63 64 64 63 64 65 66 67 67 68 68 69 69 70 70 70 69 69 68 67 66 66 65 66 67 68 68 69 70 70 71 71 72 73

ECMWFNIL_250_spd_045.txt.gz
Wind_Speed
46 46 46 48 48 48 50 50 50 49 47 46 46 45 44 43 41 39 38 38 37 36 35 33 31 30 29 29 30 30 30 31 31 31 31 31 32 31 29 26 24 23
50 48 47 48 49 50 51 51 52 51 50 49 48 48 48 47 46 44 43 41 41 40 39 38 37 36 35 35 35 35 35 35 35 34 34 34 34 33 32 30 28 27
51 49 48 47 47 48 49 49 51 51 51 51 52 52 52 51 51 50 49 47 45 43 42 42 41 41 41 41 41 40 40 39 39 38 39 38 38 37 36 35 34 33
50 50 50 49 49 50 51 51 52 52 53 53 54 53 54 55 55 54 54 52 50 47 46 45 44 44 44 44 44 44 44 43 43 43 43 43 42 41 40 40 40 39
53 52 52 52 52 53 54 54 54 53 54 54 54 55 55 56 57 57 56 55 53 50 48 47 47 47 47 47 47 47 46 46 46 45 45 45 44 44 43 43 43 42
56 55 54 55 55 55 55 55 55 54 54 55 56 56 56 57 57 57 57 56 54 52 51 51 51 51 51 50 49 48 48 48 48 48 47 47 47 47 47 46 46 46
58 58 57 57 58 58 58 58 57 55 55 56 56 56 56 57 58 57 57 56 55 54 53 53 52 51 51 50 50 49 49 50 50 49 49 49 49 49 49 49 49 49
59 61 62 62 62 62 62 63 63 62 60 59 58 58 58 58 59 58 58 59 59 58 58 56 55 53 52 51 51 51 52 52 52 52 52 52 52 53 53 52 52 52
59 61 63 64 64 64 65 66 67 66 65 63 63 63 63 64 64 64 63 62 62 62 62 62 61 59 57 56 56 56 57 57 56 56 56 56 56 56 56 55 54 53
62 62 63 64 66 67 66 66 66 66 66 67 66 66 66 67 68 69 68 67 67 67 67 66 65 64 63 62 62 62 62 61 60 59 58 58 58 57 55 54 52 51
66 65 64 64 65 66 66 66 66 67 67 67 67 66 66 67 67 68 68 69 69 70 69 68 66 65 65 65 64 64 63 61 60 58 58 57 56 54 52 51 49 48
70 68 65 64 63 62 63 65 65 65 65 66 66 66 66 66 66 66 66 67 67 67 67 66 64 63 63 63 62 62 61 60 58 57 56 54 53 51 49 48 47 46
73 71 69 68 67 66 67 67 66 66 67 67 67 66 65 64 64 63 63 63 62 62 62 62 61 60 59 59 59 59 59 58 57 55 54 52 51 49 48 47 46 45
76 74 72 71 70 71 71 70 69 69 69 68 67 65 64 63 62 61 61 60 59 59 59 59 58 58 57 57 56 56 56 56 55 54 53 52 51 50 50 48 45 44
77 76 75 74 73 74 73 73 72 71 69 68 67 65 63 62 61 60 59 58 57 55 55 55 55 55 55 55 54 55 55 55 54 54 54 53 52 52 51 49 47 46
78 77 76 76 76 76 75 74 74 72 70 68 67 65 64 63 61 60 58 57 56 54 53 52 52 52 52 52 52 53 55 56 56 55 55 54 53 51 51 50 51 52
80 79 79 78 78 78 77 75 74 73 71 69 68 67 66 64 63 62 60 59 58 57 56 56 55 55 54 54 54 55 56 57 57 57 56 55 54 53 51 50 52 55
82 81 80 79 79 78 78 76 75 73 71 70 69 68 68 67 66 65 64 64 63 62 61 60 60 59 59 59 59 59 60 60 59 59 58 57 56 55 54 53 53 55
83 82 80 79 78 78 77 76 75 74 72 71 70 70 70 70 69 69 68 67 67 66 65 65 64 64 64 63 62 62 62 62 62 61 60 59 58 58 57 57 56 57
84 82 80 78 77 77 76 75 75 74 73 71 71 70 70 71 71 71 71 70 70 69 69 69 69 68 68 67 66 65 65 64 64 63 62 61 61 61 61 61 61 61
83 81 80 79 77 77 76 76 75 74 73 72 72 71 71 71 71 71 72 72 72 71 72 72 72 71 71 70 69 69 68 67 66 65 65 64 64 65 65 65 66 67
80 80 79 79 78 77 77 76 75 74 74 73 72 72 72 72 72 72 72 72 72 72 73 73 73 73 72 71 71 71 70 70 69 68 68 68 68 68 68 69 69 70
74 75 76 77 77 76 76 75 75 74 74 73 73 73 73 73 73 73 73 73 73 74 74 74 75 74 74 73 73 72 72 72 71 71 70 70 70 71 71 71 71 71
67 69 71 72 72 72 73 73 73 73 73 73 73 73 73 74 74 74 73 74 74 75 76 76 76 76 76 75 75 74 74 74 73 73 72 72 73 73 73 73 73 73
65 66 68 68 68 68 68 68 68 68 69 69 70 70 71 71 71 71 72 73 73 74 75 76 76 76 76 76 75 75 75 74 74 74 74 74 74 74 74 74 74 73
68 69 69 69 68 67 66 65 65 64 64 65 65 66 67 67 67 68 68 69 70 71 72 73 73 73 73 73 72 73 73 73 73 73 73 73 73 73 73 72 72 71

ECMWFNIL_250_spd_048.txt.gz
Wind_Speed
44 44 45 46 46 46 47 47 47 47 47 47 48 48 47 46 45 43 41 39 38 38 38 38 39 39 38 37 36 35 33 32 31 30 30 30 31 31 31 31 31 30
42 44 46 47 49 49 49 50 50 50 50 50 50 51 50 49 47 45 43 42 41 41 41 41 41 40 40 39 39 38 37 36 35 34 34 35 35 36 36 36 35 34
42 43 45 46 47 47 48 48 48 49 49 49 50 50 50 49 48 47 46 45 44 44 43 43 42 41 41 40 39 39 39 39 38 38 38 38 38 38 39 39 39 38
44 44 45 46 45 45 45 45 46 46 46 46 47 48 49 49 49 48 48 47 46 46 45 45 44 43 43 42 42 41 40 40 41 41 41 41 41 41 41 41 41 40
46 46 47 48 48 48 46 46 47 47 47 47 48 49 49 50 50 50 49 49 48 47 46 46 46 46 46 45 44 44 43 43 43 44 44 43 43 43 43 43 43 41
51 50 50 51 52 52 51 50 50 50 51 51 51 51 51 51 50 49 48 48 48 48 47 47 47 47 47 47 47 47 47 47 47 47 46 46 45 45 44 44 43 43
56 55 54 53 54 54 55 54 54 54 53 52 51 51 51 52 52 51 51 52 53 53 52 51 49 49 49 50 50 51 51 51 51 50 49 48 47 47 46 46 45 45
60 60 58 57 56 56 56 56 55 55 54 52 52 52 52 54 56 58 60 61 62 61 60 58 57 55 54 54 55 55 56 56 55 55 54 52 51 50 50 49 48 48
62 62 62 61 60 59 58 58 57 57 56 55 54 53 54 57 59 62 63 64 64 64 63 62 61 60 59 58 57 57 57 57 57 57 57 56 56 55 55 54 53 52
65 65 64 64 63 61 59 59 59 58 58 58 57 57 59 61 62 63 64 64 64 64 64 62 61 60 59 58 58 57 57 57 58 58 58 58 58 58 57 57 57 56
68 67 66 65 64 62 61 61 60 60 61 61 61 62 64 65 65 65 65 65 65 64 63 62 62 61 60 60 60 59 59 58 58 58 57 57 56 56 56 56 56 56
71 70 68 65 63 63 63 63 63 62 62 62 64 67 68 68 68 68 68 67 67 66 65 65 65 65 64 63 62 61 59 58 57 56 55 54 54 53 53 53 53 54
75 73 71 68 66 66 66 65 65 65 65 67 70 71 71 70 71 71 70 70 69 68 67 67 67 67 66 65 62 60 58 56 55 54 53 52 52 51 51 51 51 50
78 77 76 75 73 71 70 69 70 71 71 72 73 73 72 71 72 72 72 71 70 69 68 67 67 66 65 63 61 58 56 54 53 52 51 51 50 49 49 49 48 47
80 79 79 79 78 75 74 75 76 77 78 77 77 76 74 74 75 75 75 74 72 70 69 67 66 64 62 61 59 58 56 54 53 51 50 50 49 48 48 48 48 48
82 81 81 81 80 77 77 78 79 80 80 79 80 80 79 79 80 79 77 76 74 72 70 68 65 63 62 61 59 58 57 55 53 52 52 52 52 51 52 52 52 52
83 83 82 82 81 79 79 79 80 81 81 81 82 84 82 79 78 77 76 76 74 72 69 66 64 63 62 62 61 60 58 57 56 54 54 54 54 54 55 56 57 57
84 84 84 84 83 83 83 83 83 84 84 84 84 84 83 80 79 79 79 78 75 73 70 68 66 65 64 64 63 62 62 61 60 59 58 58 58 58 58 58 59 60
85 85 85 85 85 86 86 86 86 86 86 86 86 86 85 84 84 83 82 80 78 76 74 72 70 68 66 65 65 64 64 64 64 64 64 64 64 64 63 63 62 62
87 88 88 89 89 89 90 89 89 88 88 88 89 89 89 89 89 87 84 82 80 78 76 74 72 70 68 66 65 65 66 67 67 67 68 68 68 68 67 67 66 65
87 88 89 90 90 91 91 92 91 91 92 92 92 92 92 91 91 89 86 83 80 78 76 74 73 72 71 70 69 68 68 69 69 70 70 71 71 70 70 69 68 67
88 89 89 90 91 91 92 92 93 93 93 93 93 92 91 90 89 87 85 83 81 79 77 76 75 74 73 73 72 72 72 72 72 73 73 73 72 72 71 71 70 70
87 88 89 90 90 90 91 91 91 91 91 90 89 89 87 86 85 84 83 82 80 79 78 76 76 75 75 75 75 75 75 75 75 75 75 75 74 74 73 73 73 73
82 83 83 83 84 84 84 84 84 84 84 83 83 82 81 80 79 79 78 78 78 77 76 76 75 75 75 75 75 76 76 76 77 77 77 77 77 76 76 75 75 75
76 76 76 76 76 76 77 77 78 78 78 78 78 77 76 75 75 74 74 73 73 73 73 73 73 74 74 75 75 75 76 76 76 76 76 77 76 76 76 76 76 76
75 74 74 74 74 74 74 75 76 76 76 76 76 75 73 72 72 72 71 70 70 70 70 70 71 71 72 73 73 74 74 75 75 74 74 75 75 74 74 74 74 74

ECMWFNIL_250_spd_051.txt.gz
Wind_Speed
47 47 47 46 42 40 40 41 42 43 43 43 43 43 43 43 43 43 43 43 43 43 42 42 42 41 39 37 35 34 32 31 31 30 28 27 26 26 26 27 28 28
51 51 51 49 46 43 41 41 42 43 43 44 44 45 45 44 44 44 44 44 42 41 41 41 41 40 39 38 37 35 34 32 31 31 30 30 29 29 29 30 31 31
50 50 49 47 46 45 44 44 45 46 45 45 44 44 44 43 43 43 43 42 41 40 41 41 41 40 39 39 38 36 35 34 33 34 34 34 34 34 33 33 33 33
49 48 48 48 47 47 48 49 49 49 48 47 47 46 46 45 44 43 43 42 42 42 43 43 42 41 40 39 38 37 36 37 38 39 39 39 39 38 37 37 36 36
50 49 49 47 45 46 47 47 48 48 48 48 47 47 46 46 46 46 45 45 44 45 45 45 44 42 41 40 40 41 42 44 45 45 45 44 43 42 42 41 41 41
50 49 48 46 44 43 42 43 44 45 45 46 46 46 46 46 47 47 47 47 47 47 47 46 45 44 43 43 44 46 48 49 49 49 48 48 47 47 46 46 45 45
49 48 47 48 47 47 47 46 46 46 46 47 47 48 49 49 49 48 49 49 49 49 49 48 47 46 46 47 47 48 49 50 50 50 50 50 50 50 49 49 49 49
49 48 49 51 51 51 51 50 51 51 52 52 52 53 53 52 52 51 51 52 52 53 52 51 50 49 49 48 49 50 52 52 52 51 50 49 49 49 49 50 50 50
54 54 55 54 54 53 53 53 54 55 55 55 55 54 54 53 53 53 54 55 56 56 56 55 54 53 52 52 53 55 56 57 56 55 52 51 50 50 50 51 52 53
61 61 58 55 55 56 56 56 57 57 58 58 57 57 56 56 56 56 57 58 58 59 59 58 56 56 56 57 59 59 59 59 58 57 55 54 53 53 53 53 54 54
64 64 61 59 59 60 60 60 60 59 59 58 57 57 57 58 59 60 60 60 60 60 60 59 58 57 57 60 62 61 61 61 60 59 60 59 57 55 53 53 52 51
62 64 63 62 63 63 62 62 64 64 62 59 57 58 59 60 60 60 61 62 63 62 61 60 60 59 60 62 63 63 66 67 66 64 63 61 58 55 52 51 50 48
54 58 60 61 61 60 57 56 58 59 59 60 59 59 60 60 61 62 64 65 65 65 64 64 64 64 65 67 68 69 71 71 68 65 61 56 52 49 47 47 47 46
53 48 49 53 57 58 57 56 56 55 54 56 59 60 61 63 64 65 66 66 68 68 68 68 68 68 69 70 71 71 71 69 65 59 51 44 42 42 43 44 44 43
63 58 54 54 54 55 56 58 61 61 58 56 56 55 54 54 53 50 51 57 62 64 65 66 64 63 64 64 64 63 62 61 58 50 43 40 40 42 44 46 47 47
67 68 69 66 63 62 63 64 67 67 63 60 58 54 50 46 42 42 48 56 60 61 62 61 58 57 60 61 61 60 57 54 52 48 43 40 43 49 54 57 58 58
71 71 73 74 73 73 72 72 73 72 71 71 72 70 67 61 57 58 62 66 67 64 60 57 56 59 63 63 63 62 58 56 55 55 54 53 58 65 69 69 68 66
76 77 78 78 78 76 76 76 77 76 77 78 77 77 77 76 73 72 70 67 64 58 53 54 58 62 63 63 64 66 67 68 69 70 71 73 76 77 76 73 71 69
75 77 79 80 80 79 77 76 76 76 77 78 77 76 75 72 68 64 61 57 53 52 55 61 66 68 69 71 74 78 79 80 81 82 84 85 84 82 78 74 72 69
72 74 76 79 81 82 81 80 79 78 78 78 77 76 74 71 68 66 66 65 65 69 74 79 81 81 83 85 86 88 88 89 91 91 91 90 88 84 79 75 72 70
72 73 75 77 79 82 83 84 84 83 82 82 81 81 81 81 82 83 84 84 85 88 90 91 91 92 92 92 93 93 94 95 96 95 94 91 88 83 79 75 72 71
76 77 77 78 79 80 81 83 84 85 85 86 87 87 87 87 88 89 89 90 91 92 93 94 94 94 94 95 95 96 97 97 97 96 93 89 84 80 77 74 72 71
79 80 81 81 82 82 82 83 84 85 86 88 89 90 91 92 93 93 94 94 95 95 95 96 96 96 97 97 98 98 98 97 95 91 86 81 78 75 73 71 70 70
81 82 83 84 85 85 85 86 87 87 88 88 89 90 91 92 93 94 95 96 96 97 97 98 98 99 98 98 97 96 94 91 87 82 78 76 74 71 69 68 67 67
78 79 81 83 85 86 86 88 89 89 90 91 91 92 93 93 94 94 95 96 97 97 97 96 96 96 94 93 90 87 84 82 79 76 74 73 72 70 68 67 66 65
74 75 75 76 78 80 81 82 84 85 86 86 87 88 89 90 90 91 91 91 92 92 90 89 88 87 86 83 81 80 78 77 76 75 73 72 72 70 68 67 66 66

ECMWFNIL_250_spd_054.txt.gz
Wind_Speed
43 42 40 39 40 41 41 41 42 43 43 43 43 43 42 41 41 41 41 41 40 39 39 40 40 40 39 38 37 36 35 34 32 30 29 28 25 23 22 22 24 25
48 47 45 44 44 45 46 47 47 47 47 48 48 48 48 46 46 45 46 46 45 44 45 44 41 39 38 37 36 35 34 33 31 30 29 28 27 27 27 28 29 29
53 52 51 50 49 49 49 49 49 49 49 50 50 49 49 49 49 49 50 49 49 49 49 46 43 40 38 37 36 35 35 34 32 32 32 31 31 31 32 32 32 32
55 55 54 53 53 52 51 50 50 49 49 48 48 48 48 49 51 52 52 52 52 51 49 46 43 40 39 38 38 37 37 36 35 34 34 34 34 34 35 35 35 35
55 54 53 53 54 55 54 53 52 51 50 50 50 51 52 53 54 55 56 56 55 53 50 47 44 42 42 41 41 40 39 38 37 36 36 36 37 37 36 36 37 39
56 55 54 54 56 57 57 56 55 54 53 54 54 55 56 56 57 59 60 59 57 53 50 48 46 45 44 44 43 43 41 40 40 39 39 40 40 40 39 39 40 41
56 57 56 57 57 57 56 56 56 56 55 56 56 56 55 56 57 58 59 58 55 53 51 48 47 46 45 45 45 44 43 43 43 43 44 45 45 44 43 43 44 44
56 57 56 55 54 53 54 55 56 56 55 55 53 52 52 53 53 53 52 52 51 51 49 48 47 47 46 46 45 45 46 46 47 48 48 48 48 48 48 47 47 47
57 55 53 49 48 48 50 51 54 56 56 56 55 53 52 52 52 52 52 51 51 50 49 48 48 48 48 48 47 48 48 49 50 50 49 49 49 49 49 49 49 50
58 56 54 50 49 50 53 55 56 57 58 57 55 54 53 54 54 54 53 53 52 50 49 49 49 48 49 49 49 48 49 50 51 51 51 50 49 50 51 52 53 54
59 58 58 56 54 53 53 54 54 54 55 55 55 55 56 57 56 54 53 53 51 50 50 51 52 52 53 52 51 49 49 49 50 51 51 51 51 51 53 54 55 55
60 60 61 61 60 55 50 47 48 50 53 55 56 57 57 57 56 54 53 52 51 51 52 53 54 55 56 56 55 54 53 53 53 53 51 51 51 50 51 53 53 53
57 59 60 59 57 55 52 49 49 51 52 54 55 55 56 57 56 54 52 50 51 51 50 51 52 55 58 59 58 56 55 54 53 52 51 50 50 50 52 53 52 51
48 51 56 57 56 54 54 54 52 51 52 54 54 53 53 54 55 55 53 52 53 53 52 54 56 57 59 59 57 56 55 54 52 51 52 53 53 54 54 53 51 51
42 46 51 54 57 58 59 60 58 56 56 55 51 50 51 52 53 55 54 53 53 53 53 55 56 58 56 51 49 49 48 47 47 47 49 51 52 53 53 51 51 52
45 50 53 57 59 62 65 66 64 63 62 56 50 48 49 50 51 53 53 54 53 53 53 54 53 54 52 45 43 45 43 41 44 46 47 49 50 52 52 53 53 53
52 56 60 63 64 64 66 67 66 67 69 66 62 60 60 59 59 60 60 61 62 61 61 61 59 58 57 51 49 50 50 49 51 53 53 54 56 57 58 57 56 56
61 63 64 65 66 66 67 67 68 70 73 74 75 75 75 74 74 74 73 73 74 72 69 70 70 69 68 65 62 62 62 61 62 62 62 63 64 65 64 60 58 58
66 67 67 68 70 71 72 73 75 76 77 77 77 78 78 78 78 78 78 76 76 76 75 76 76 76 75 73 72 71 70 69 70 70 70 70 70 69 66 62 60 62
66 66 68 69 70 72 74 76 78 80 82 82 82 82 81 81 80 79 78 77 77 78 78 78 78 79 79 77 75 73 73 74 76 76 74 72 71 69 67 67 69 73
65 65 65 66 67 68 70 73 75 78 81 84 85 85 85 85 83 82 81 80 80 80 81 81 80 80 79 78 77 77 77 77 77 75 72 70 69 70 72 76 80 84
68 67 67 67 67 67 68 70 71 73 76 79 81 83 85 85 86 86 86 85 84 84 83 82 82 81 80 80 79 79 77 76 75 73 72 72 74 77 81 85 87 88
71 72 73 73 74 74 74 75 75 76 77 79 80 81 82 83 84 85 85 84 84 83 82 81 80 80 80 80 80 80 79 78 78 78 79 82 84 87 89 91 92 92
72 73 74 76 77 78 79 80 81 82 82 83 83 84 85 85 85 85 84 84 83 82 83 84 83 83 83 83 83 83 84 85 86 87 87 89 91 92 94 96 96 96
69 70 72 74 77 79 80 82 83 84 85 86 86 87 88 88 88 88 88 87 86 85 87 88 88 88 88 88 89 89 90 92 93 93 93 93 94 96 97 98 98 98
66 67 68 71 73 75 77 79 81 83 85 86 87 89 90 91 91 91 91 91 90 89 90 91 92 92 92 92 93 94 95 96 97 98 97 97 98 99 99 100 99 98

ECMWFNIL_250_spd_057.txt.gz
Wind_Speed
50 48 47 48 48 47 47 47 47 46 46 46 45 45 44 42 41 40 40 41 42 43 43 43 42 40 38 37 38 39 41 41 42 41 38 36 36 34 32 31 29 28
51 49 47 47 47 47 47 47 48 48 48 48 48 49 49 48 47 47 47 48 49 49 48 46 44 42 41 41 42 42 43 44 44 42 39 37 36 35 34 32 31 31
54 53 51 50 49 48 47 46 47 48 49 51 52 54 55 55 55 54 54 54 54 53 51 48 46 45 44 45 45 46 46 46 44 42 40 39 38 38 37 36 35 34
52 52 52 52 53 53 52 50 49 50 51 52 54 56 57 58 57 57 57 56 55 54 52 50 48 48 47 48 48 47 47 45 44 43 42 42 41 40 39 38 38 38
48 50 50 51 52 55 56 56 55 55 54 53 54 55 56 56 56 56 55 55 54 53 52 51 50 49 48 48 48 47 47 46 45 44 45 44 43 41 41 40 40 39
46 48 50 51 52 53 55 57 57 57 56 55 55 54 55 55 54 54 54 53 53 52 51 50 49 49 49 49 49 49 48 47 47 48 48 47 44 43 43 42 42 41
46 48 49 50 52 53 54 56 56 55 55 55 55 55 55 55 54 54 53 52 51 51 50 49 49 50 50 51 51 51 51 51 52 52 50 48 47 46 46 45 45 43
48 50 50 51 52 52 53 55 55 55 53 53 53 54 53 53 52 52 52 51 51 51 51 51 51 51 51 51 52 52 53 53 53 52 51 50 50 50 49 48 47 47
50 52 53 54 55 55 55 57 57 58 57 56 54 54 52 52 51 51 50 49 49 50 50 49 49 49 49 49 49 50 50 51 52 52 52 53 53 53 52 50 50 49
54 56 57 59 61 62 61 61 61 62 61 60 58 56 54 53 52 51 50 49 48 47 48 48 48 48 48 48 49 50 51 52 52 54 55 55 55 53 52 51 50 50
57 58 60 62 64 64 62 61 61 61 60 59 57 56 56 56 55 53 51 48 46 46 47 48 48 48 49 50 50 52 53 53 53 55 55 54 53 53 52 51 50 50
55 55 56 58 60 61 60 58 58 58 57 57 58 59 59 58 56 53 49 45 44 46 47 48 49 49 50 51 52 53 54 53 52 53 52 51 51 52 51 51 50 50
56 56 55 54 55 57 57 57 59 59 59 59 60 59 58 54 50 47 46 45 46 48 50 51 51 51 52 52 53 54 54 52 52 54 53 53 54 54 54 54 54 54
56 56 54 51 51 53 54 56 58 59 59 58 57 55 52 49 46 46 48 50 52 53 54 54 54 53 53 53 52 52 53 54 55 56 55 54 54 55 57 58 59 60
54 54 53 50 51 52 52 53 55 57 56 55 54 54 53 51 51 53 55 56 57 58 58 58 58 57 56 56 55 54 53 55 56 55 54 55 57 60 61 60 58 58
55 55 53 51 52 51 49 50 54 56 56 56 55 55 55 55 56 57 59 60 61 61 61 61 61 60 58 57 55 54 53 55 57 58 58 56 56 60 63 61 57 54
55 53 50 48 48 48 47 50 54 57 56 54 54 55 55 56 57 58 59 62 63 64 65 66 65 63 60 57 54 53 55 59 62 65 65 61 57 57 61 64 63 60
51 50 49 49 49 49 51 51 51 52 53 51 50 51 53 54 57 60 61 62 64 65 66 67 67 65 63 60 58 59 62 66 68 69 69 67 64 62 64 67 68 68
53 54 55 57 57 57 57 57 53 51 52 53 53 53 54 56 59 63 65 67 69 71 71 70 70 69 67 66 67 68 70 73 73 72 71 70 69 69 69 70 72 73
56 58 59 61 62 61 62 63 61 58 57 58 58 58 59 60 62 66 70 71 72 73 73 72 71 71 70 71 73 74 76 76 76 76 75 74 74 74 75 75 76 76
56 56 56 58 59 60 61 62 63 62 62 62 62 63 64 66 68 70 72 73 73 73 72 72 71 72 73 75 76 78 78 79 79 78 78 78 78 79 79 79 79 79
60 60 59 60 60 60 62 62 61 61 63 65 67 68 70 71 72 73 74 75 76 77 77 77 77 78 78 79 81 82 83 83 82 81 81 81 82 82 82 82 82 83
67 67 66 67 67 66 67 68 68 68 69 70 72 74 75 75 74 74 75 77 78 78 79 80 81 82 82 83 83 84 85 85 85 85 85 85 85 85 85 85 84 84
71 71 71 73 74 75 75 77 78 79 79 79 80 81 82 81 80 79 79 79 79 79 80 80 81 82 83 83 84 83 83 84 84 84 85 86 86 86 85 85 84 83
76 77 77 78 79 80 82 82 83 84 85 86 87 87 88 87 86 84 84 84 85 85 85 86 86 87 87 88 88 88 88 87 86 86 86 87 87 87 86 85 84 83
81 81 81 82 82 83 83 84 83 84 85 86 87 88 88 87 86 86 86 87 88 90 91 92 92 93 94 94 94 94 94 93 92 91 90 90 91 91 91 91 91 90

ECMWFNIL_250_spd_060.txt.gz
Wind_Speed
43 43 44 44 45 46 47 48 48 48 46 45 44 43 43 42 41 40 40 40 40 40 39 39 38 37 38 39 41 44 46 47 46 45 44 43 42 41 40 39 38 38
40 39 40 40 41 42 43 45 46 46 45 44 43 42 42 42 42 42 42 41 41 41 40 41 41 42 43 45 47 48 48 48 47 46 45 44 43 41 40 40 39 38
37 38 38 39 40 40 41 42 43 43 43 43 42 43 43 43 44 43 43 42 41 42 43 43 45 46 48 49 49 49 48 48 47 46 45 44 43 42 42 41 39 37
36 36 36 36 36 37 39 40 41 42 42 42 42 42 43 43 43 43 42 42 42 43 44 46 47 48 49 49 49 48 48 47 46 46 45 44 44 43 43 41 38 36
36 37 36 36 36 36 37 38 39 40 41 43 45 45 45 45 45 45 44 44 45 45 45 45 46 46 46 46 46 46 46 46 46 46 46 45 45 44 42 40 38 37
35 36 37 37 37 37 38 38 38 39 39 41 43 45 46 48 49 49 49 48 48 47 46 45 45 45 45 45 46 46 47 47 47 47 46 45 44 42 41 39 39 39
37 37 37 38 38 39 40 39 39 40 40 41 42 43 44 46 48 48 48 48 48 47 47 47 47 47 47 47 48 48 47 47 47 46 45 43 42 41 41 41 42 43
33 34 35 35 37 39 40 41 42 43 44 44 44 44 43 45 47 48 48 48 49 48 48 49 49 48 48 48 48 47 47 46 46 45 43 43 43 44 45 46 47 47
32 33 32 32 34 37 39 40 42 43 44 45 45 45 45 47 49 51 51 52 52 52 52 52 51 50 49 49 49 49 48 48 47 47 46 46 47 47 47 48 48 48
34 35 34 34 36 38 40 42 43 45 46 46 47 48 49 51 53 54 54 55 56 55 54 53 52 52 51 52 51 50 50 50 49 47 46 45 45 45 45 46 48 48
34 36 37 39 41 42 43 46 49 51 50 50 53 54 55 56 56 57 58 58 57 55 54 53 53 53 53 52 51 51 51 49 46 44 43 43 43 44 45 47 48 48
41 42 42 43 45 47 48 50 52 53 53 53 56 58 59 59 59 60 61 60 58 56 55 55 55 54 54 54 53 52 50 47 44 43 44 44 45 46 47 49 49 48
48 49 48 48 50 51 52 53 55 57 58 58 59 61 61 61 61 62 62 61 60 59 58 58 58 58 58 57 56 54 51 48 47 47 47 47 47 49 50 50 51 52
52 53 53 55 57 57 56 57 58 60 61 60 60 61 62 61 61 60 61 61 60 60 61 61 61 61 60 58 56 55 53 52 52 52 51 51 52 53 54 55 55 56
58 59 60 62 63 63 62 62 62 61 61 60 59 59 60 59 59 59 59 59 59 60 60 60 60 60 59 58 57 56 56 55 56 57 57 58 58 59 59 60 60 60
62 63 64 65 65 64 62 61 60 59 59 60 60 59 59 60 60 60 60 60 60 60 60 59 59 58 58 58 57 57 58 58 59 60 61 61 61 61 61 62 62 62
61 63 63 63 64 64 62 61 60 59 59 58 57 57 57 57 59 59 59 59 59 58 59 59 58 59 59 59 59 60 59 59 60 61 61 61 61 61 62 62 62 63
62 63 63 64 65 65 65 64 62 61 59 57 56 55 55 56 56 57 57 57 57 57 57 58 59 60 60 60 60 60 59 59 60 61 61 61 62 63 64 64 65 65
66 67 67 67 67 67 66 66 64 62 61 59 57 56 56 55 56 56 56 56 57 57 57 58 59 59 59 59 59 60 60 59 60 61 63 65 67 67 68 68 68 69
69 69 69 68 67 66 66 65 64 63 61 59 58 58 57 56 55 56 56 57 58 58 58 58 58 57 57 58 58 59 60 60 61 64 67 69 70 69 70 71 71 72
72 71 70 69 68 67 66 65 64 63 61 59 58 59 59 58 57 58 59 61 61 61 60 60 59 57 57 57 59 61 62 63 65 68 70 71 71 70 71 71 72 73
75 73 73 71 68 66 65 63 63 64 64 61 60 60 61 62 62 63 63 64 65 65 65 64 63 62 62 62 63 65 66 67 68 69 70 70 70 70 71 71 73 74
74 73 72 71 68 66 65 64 64 65 65 64 62 60 60 61 62 62 62 63 64 65 66 67 68 67 67 67 68 70 72 74 74 73 73 73 73 74 74 75 76 76
74 73 72 71 70 69 69 68 68 69 69 69 68 66 64 63 64 64 64 65 67 68 69 70 71 72 73 74 76 77 79 80 81 81 80 80 79 79 79 79 78 78
77 76 75 74 73 72 73 73 73 72 72 72 73 74 73 73 72 72 72 73 75 76 77 78 79 81 82 83 85 85 86 86 87 87 88 88 87 87 87 86 86 86
80 79 78 77 76 76 76 76 75 74 73 74 75 76 78 79 79 80 81 81 81 82 83 84 85 87 88 89 89 90 90 90 90 91 91 92 92 92 91 92 92 93

ECMWFNIL_250_spd_063.txt.gz
Wind_Speed
41 40 39 39 40 40 40 40 40 39 38 38 39 39 40 39 38 38 37 36 36 36 36 36 36 35 35 35 36 36 36 36 36 36 36 37 38 40 40 40 39 38
39 38 37 37 38 38 39 38 38 37 37 36 36 37 38 38 37 36 36 36 36 37 37 37 37 37 37 37 37 37 37 37 37 38 39 40 41 42 41 41 40 39
40 39 39 39 39 38 38 37 36 35 34 35 35 36 37 37 37 36 36 36 36 37 37 37 38 38 38 38 38 38 38 38 39 40 41 42 43 42 41 40 39 38
42 41 40 40 39 38 37 37 35 34 32 32 32 35 37 37 36 36 36 37 37 37 37 38 39 39 39 39 39 39 39 40 41 42 42 42 41 40 39 39 38 38
39 38 38 37 37 37 36 36 35 33 32 31 30 32 33 34 35 35 36 37 38 37 38 38 39 40 40 41 41 41 42 42 43 42 42 41 40 40 40 40 40 39
36 36 35 35 35 35 35 35 34 33 33 33 32 31 31 31 32 34 36 37 38 39 40 41 42 43 43 43 44 43 43 42 42 41 41 42 42 42 42 42 41 40
35 35 35 35 36 36 36 36 35 34 34 34 33 32 30 30 32 33 34 35 36 36 38 40 41 42 43 43 43 42 42 42 43 44 44 45 44 44 43 42 41 41
34 34 36 37 39 39 40 39 38 37 37 36 35 33 32 32 33 34 35 35 35 36 37 37 39 39 40 42 43 44 46 46 47 48 48 47 45 44 43 42 41 41
36 34 34 36 38 39 40 40 41 41 40 39 38 36 34 34 35 36 37 38 38 38 38 39 40 42 43 46 47 49 49 50 50 49 48 47 46 45 44 43 42 41
37 34 33 34 36 38 39 39 40 41 41 41 40 38 37 36 37 39 40 40 40 40 41 42 43 44 46 48 50 51 51 51 51 50 48 47 46 46 45 44 44 44
34 34 34 36 37 39 39 41 42 42 39 38 37 37 37 38 38 40 42 42 42 42 43 44 46 48 50 51 52 53 53 52 51 50 49 48 48 47 47 47 47 47
37 36 37 36 35 37 39 41 43 42 39 37 38 38 39 41 41 42 43 44 46 47 48 50 51 52 52 52 52 52 52 52 51 51 50 50 50 50 50 50 49 48
38 39 40 39 37 38 40 40 41 42 42 42 43 43 43 44 45 46 48 51 53 53 54 54 53 53 52 51 51 51 51 52 52 52 52 52 52 51 51 50 49 49
40 42 44 44 44 44 44 43 44 47 48 48 48 49 49 50 51 54 57 58 57 56 56 55 55 54 53 52 51 51 51 51 52 52 52 51 51 50 49 48 49 49
42 45 46 47 49 49 49 50 51 52 53 53 53 54 55 56 58 60 61 60 58 57 57 56 56 55 54 53 52 51 50 50 50 50 50 49 48 48 47 48 48 49
45 47 48 49 51 52 53 54 54 54 55 55 55 57 59 61 61 60 59 58 56 55 55 54 55 54 54 53 52 51 50 49 48 48 48 47 47 47 48 49 50 51
56 55 54 54 55 55 54 54 55 56 57 58 60 62 62 61 60 59 57 56 54 53 53 54 54 53 52 51 50 50 49 48 48 48 47 48 49 50 51 51 52 53
64 63 61 60 59 57 57 57 58 60 61 62 63 63 62 61 61 60 59 57 55 55 56 57 56 54 52 50 49 49 49 49 49 50 50 51 52 53 53 54 54 55
67 66 64 61 60 59 58 59 60 61 62 63 62 62 61 61 60 59 58 57 58 59 60 59 57 54 52 50 49 48 48 49 50 51 51 52 53 54 54 55 55 56
69 69 66 63 62 61 60 61 61 62 62 61 60 59 58 59 58 57 57 59 60 60 59 56 52 50 49 49 49 48 48 49 50 51 52 53 54 55 55 56 56 57
69 70 70 68 66 64 63 63 62 63 64 63 61 60 60 62 63 60 58 59 59 58 57 55 52 50 49 50 50 51 51 52 53 55 56 57 58 59 60 60 61 61
68 68 68 69 68 67 67 66 64 64 65 63 61 60 58 60 63 61 56 54 54 54 54 56 57 56 55 55 55 55 55 56 58 59 61 62 63 64 66 67 67 68
71 71 70 69 69 69 69 69 68 67 66 64 62 60 57 59 62 62 58 55 56 56 56 59 63 64 63 63 62 61 61 61 62 63 64 65 66 67 69 71 72 73
73 73 72 71 71 71 71 71 71 70 70 69 67 64 62 62 64 64 62 61 62 64 64 65 68 69 68 68 68 68 69 69 69 70 71 71 72 73 73 74 75 77
76 75 75 74 74 74 74 74 75 75 75 75 74 72 71 70 70 71 70 69 70 71 71 72 72 73 73 73 73 73 74 75 76 77 78 79 80 81 81 82 82 82
79 79 79 78 78 79 79 79 80 80 80 80 80 79 79 79 79 79 79 78 78 77 77 77 77 77 78 78 78 79 79 79 80 81 83 84 85 86 87 88 88 88

ECMWFNIL_250_spd_069.txt.gz
Wind_Speed
41 41 42 41 41 41 42 42 41 40 39 38 37 36 35 34 32 31 30 30 30 30 31 31 31 32 32 33 33 33 34 35 36 36 36 35 34 33 32 31 30 30
41 41 41 40 40 41 41 41 40 39 38 37 36 34 33 32 30 29 29 30 30 30 30 30 31 32 32 33 33 34 34 35 36 36 36 35 34 33 32 31 30 29
39 39 39 38 39 39 39 39 38 37 36 35 34 32 31 29 29 28 28 28 29 29 30 30 31 32 33 33 34 34 34 34 35 35 34 34 33 32 31 30 29 28
36 37 37 36 35 35 35 35 35 34 34 32 32 31 30 29 29 28 28 28 28 29 29 30 31 31 32 32 33 33 33 33 33 33 32 32 31 30 29 28 27 26
32 32 31 31 30 30 31 32 32 32 30 29 29 30 30 30 29 29 28 28 28 28 29 29 30 31 32 32 33 33 32 32 31 30 29 28 28 27 27 26 25 25
28 27 25 25 25 26 28 29 30 30 29 29 29 30 31 31 30 29 29 29 28 29 29 29 30 31 31 31 31 31 31 29 28 27 26 26 26 26 26 25 25 24
26 24 23 22 23 23 25 26 27 28 27 27 28 29 31 30 30 30 30 29 29 29 29 29 29 29 29 29 29 29 28 27 26 26 26 26 26 26 26 25 25 25
27 26 26 26 25 25 24 25 25 25 24 25 26 28 29 29 29 30 29 29 29 29 29 28 28 28 28 28 28 28 28 28 27 27 27 27 28 28 27 27 28 28
30 29 27 27 26 26 26 26 27 26 25 26 27 27 27 28 29 29 28 28 28 28 28 28 28 28 28 28 28 29 30 30 29 29 28 29 29 30 30 30 31 31
33 32 29 27 26 25 26 29 30 30 29 29 29 28 27 28 29 29 29 29 29 29 30 30 30 30 29 29 29 30 31 32 31 31 30 31 31 32 33 33 34 36
33 34 33 32 31 30 30 32 34 34 33 33 32 30 30 30 31 31 31 31 31 31 31 32 32 32 32 32 32 33 34 34 34 34 34 34 35 35 37 38 40 41
32 34 35 36 36 37 35 34 35 35 34 34 33 32 31 32 32 33 33 33 33 33 33 33 34 34 35 35 34 34 35 36 37 38 40 40 40 41 42 43 43 45
31 32 34 36 37 38 36 34 35 36 35 35 35 35 35 36 36 35 35 35 35 35 35 35 35 36 36 36 36 36 37 39 41 43 44 45 46 46 45 45 46 48
31 29 30 33 34 34 33 34 36 37 37 37 38 39 39 39 38 37 37 38 38 37 37 37 38 39 39 38 39 40 41 43 44 45 46 48 48 48 48 48 50 52
33 31 30 33 35 36 36 37 39 39 39 40 41 42 43 42 39 39 40 41 41 40 41 41 41 40 40 40 41 42 43 44 45 46 47 48 48 48 50 52 53 53
37 36 35 36 37 38 39 40 40 40 41 42 42 43 44 44 42 41 42 43 43 43 43 42 40 40 41 43 45 45 46 46 47 47 48 49 50 51 52 53 54 54
40 39 39 40 39 38 39 40 41 42 43 44 44 44 45 45 44 43 44 45 45 44 43 42 43 44 46 47 48 48 49 49 49 49 50 51 53 53 54 55 55 54
38 39 39 40 41 40 40 41 43 43 44 44 44 45 45 46 46 46 46 46 45 44 44 45 47 48 49 50 50 50 51 51 52 52 53 54 55 55 56 56 55 54
42 42 42 42 42 41 41 42 44 45 45 46 46 46 47 48 48 48 47 46 46 45 45 46 48 50 52 53 52 51 52 53 55 56 57 57 58 59 58 57 56 55
49 48 48 48 47 45 44 44 46 47 46 46 47 47 48 48 48 48 47 46 47 48 49 51 53 55 55 55 54 54 56 58 59 60 61 62 63 63 61 60 58 58
55 54 54 54 52 51 50 49 48 48 47 47 47 47 48 48 48 49 49 51 52 54 56 58 58 57 57 58 59 61 62 63 64 65 67 67 67 66 64 63 63 63
58 59 59 59 58 58 57 57 55 55 55 54 53 52 52 53 54 55 57 58 60 61 61 61 61 61 62 64 66 67 67 67 68 68 68 68 67 65 64 65 65 66
60 62 62 63 64 64 64 64 63 62 63 62 61 61 61 61 62 62 63 64 65 65 65 65 66 67 69 69 70 70 70 70 69 68 67 67 66 65 65 67 68 68
63 64 65 66 67 68 69 69 69 69 68 68 68 68 68 69 69 68 68 68 67 67 68 69 70 71 72 72 71 71 70 70 70 69 69 69 70 69 69 69 70 70
66 66 67 68 68 69 70 70 71 72 72 72 71 71 72 72 72 71 71 71 71 70 71 72 74 74 74 73 73 73 73 72 72 72 72 72 72 72 71 71 71 72
67 68 69 70 70 71 72 72 72 72 72 73 73 74 74 74 74 73 73 73 73 72 73 75 76 77 76 76 75 75 75 75 74 74 74 74 74 74 74 74 75 75

ECMWFNIL_250_spd_075.txt.gz
Wind_Speed
61 57 52 51 54 58 61 63 64 64 63 62 61 61 61 59 57 55 52 50 48 46 45 43 42 40 39 37 35 34 34 33 34 34 33 33 33 32 31 32 33 35
58 56 53 54 57 58 60 61 62 61 61 60 58 55 52 50 48 47 46 44 43 42 41 40 39 39 37 36 34 33 32 32 33 33 34 34 33 32 33 34 35 36
52 50 51 55 57 56 57 57 58 57 55 53 49 45 42 41 41 41 41 41 40 39 39 38 38 37 36 34 32 31 31 31 31 33 34 34 34 34 35 35 36 36
44 45 51 57 58 59 58 57 55 52 49 46 42 40 38 37 36 36 36 37 37 37 37 37 37 36 34 33 32 31 30 30 31 32 33 33 34 34 35 35 35 35
54 56 60 63 62 60 57 54 51 48 45 42 40 38 37 36 35 34 33 33 34 35 35 35 35 34 33 32 31 30 30 30 30 31 32 32 33 34 34 34 35 35
61 63 64 63 61 57 54 52 50 47 44 42 40 39 39 38 37 35 34 32 32 32 33 33 32 31 31 31 31 30 29 29 30 30 31 32 33 34 34 34 34 35
54 58 59 59 58 56 55 54 51 49 47 44 43 42 41 39 38 36 35 33 31 30 30 30 30 29 30 30 30 30 30 30 30 31 31 32 33 33 33 34 34 34
43 48 51 54 55 55 55 54 53 51 49 47 45 43 41 39 38 37 36 34 33 31 30 29 29 29 29 30 30 30 30 30 30 31 31 31 31 31 32 32 33 33
32 39 45 49 50 51 52 52 52 51 50 49 47 44 41 39 37 37 37 36 35 34 32 30 29 30 30 30 30 30 30 30 30 30 29 29 29 29 30 30 30 31
28 32 39 44 45 46 48 49 49 48 48 48 47 45 43 40 38 38 37 36 36 34 33 31 30 29 29 29 29 29 29 29 28 29 28 28 28 28 28 29 29 30
30 29 33 38 40 42 44 46 47 47 46 46 46 46 44 41 39 38 37 36 35 34 33 32 30 29 28 27 28 28 28 28 28 27 27 27 27 27 28 28 29 30
35 36 37 35 33 34 35 37 40 42 42 43 44 44 43 41 40 39 38 37 36 35 34 32 31 30 29 29 29 29 30 30 29 28 28 28 28 28 29 30 31 32
38 41 41 36 32 29 29 29 30 32 33 35 37 38 38 38 38 38 39 38 37 36 35 32 31 31 31 31 31 31 31 31 31 30 30 30 30 30 31 31 32 34
37 38 37 34 32 31 31 30 27 27 29 31 33 35 35 36 36 37 38 37 37 36 34 33 33 33 34 34 33 32 31 32 32 32 32 32 32 33 33 33 34 36
37 36 34 33 32 32 34 33 30 30 31 34 36 37 38 38 37 37 37 37 36 35 35 35 35 35 35 35 34 33 34 34 35 35 35 35 36 36 36 36 37 38
38 37 36 35 34 34 36 35 33 34 35 38 38 38 38 37 36 36 37 37 37 38 38 38 38 38 37 36 36 36 36 36 36 37 38 38 39 39 40 41 41 41
40 39 38 38 38 37 37 37 37 37 38 40 40 40 39 37 35 35 36 36 37 37 38 39 39 38 37 37 38 38 38 38 39 41 42 43 42 42 43 44 44 43
41 40 40 41 42 41 41 41 41 39 40 41 42 41 41 41 39 38 38 39 38 37 38 40 40 39 38 39 40 41 41 43 44 45 46 46 46 46 46 46 45 43
41 41 40 40 40 42 44 45 44 42 42 42 42 42 42 43 42 42 42 42 41 41 41 43 44 43 42 43 45 45 46 47 47 48 49 49 49 48 48 46 44 42
42 43 42 40 40 41 44 45 46 45 45 45 44 43 43 43 42 41 41 41 42 43 43 44 46 46 45 47 48 48 48 49 50 51 51 50 49 48 47 46 44 43
46 46 46 45 43 43 43 45 46 46 47 48 47 46 45 45 44 43 43 43 43 44 45 46 47 47 48 49 50 50 51 52 53 53 52 50 48 47 47 47 47 47
51 50 48 47 46 45 45 46 46 47 47 48 49 49 48 48 49 49 49 49 49 49 50 50 50 50 50 50 51 51 52 52 52 51 50 49 48 48 49 51 52 53
57 57 55 52 51 49 48 48 48 48 47 48 49 50 50 49 50 51 51 51 51 50 51 51 51 51 50 51 51 51 51 51 52 52 52 52 53 53 55 58 59 61
54 57 58 58 57 56 54 53 52 51 50 50 51 52 52 51 51 51 51 51 50 49 49 51 52 52 53 53 54 54 54 54 55 56 57 58 59 60 62 64 67 69
51 52 54 56 58 59 59 59 59 58 57 56 55 55 55 55 55 53 53 53 52 51 52 54 55 55 56 56 57 57 58 59 60 61 62 63 65 67 69 71 72 73
57 56 55 54 55 56 58 60 62 63 64 63 63 61 60 60 60 60 59 59 58 58 58 59 60 60 61 62 63 64 65 66 68 68 70 71 73 74 75 74 73 73

ECMWFNIL_250_spd_078.txt.gz
Wind_Speed
63 68 69 68 68 66 64 64 63 62 63 64 65 65 65 66 66 64 62 62 64 66 66 64 62 60 58 56 54 53 53 52 51 49 47 46 45 43 42 41 40 39
57 62 66 67 68 69 69 69 69 69 69 69 69 70 70 68 66 64 63 62 63 65 64 62 59 56 53 51 51 50 50 50 49 47 46 45 44 42 41 40 40 39
56 56 60 63 64 65 66 67 66 66 67 68 69 69 69 66 64 64 64 64 64 63 61 57 54 51 49 48 47 47 47 47 47 46 45 44 44 42 41 41 40 40
59 56 56 59 62 64 66 67 68 67 66 67 68 69 69 68 68 67 66 66 64 61 57 53 50 48 46 44 43 42 43 44 45 45 45 45 44 43 41 40 40 40
59 58 56 55 57 62 65 68 70 70 69 68 67 67 68 69 69 68 67 65 61 57 52 49 47 45 43 41 40 39 39 39 41 43 44 44 43 42 40 39 39 39
53 54 55 54 53 54 57 60 63 65 66 65 64 64 64 65 65 64 62 58 54 50 47 46 44 43 42 41 39 38 37 37 38 40 41 42 41 40 39 38 38 38
43 46 48 50 50 49 49 52 56 59 61 62 62 61 60 60 59 58 56 52 49 47 46 45 45 44 42 41 40 40 39 38 38 38 38 39 39 38 38 38 38 37
37 40 42 45 47 47 46 48 52 55 56 58 58 57 57 56 56 55 52 50 48 47 46 46 45 43 42 41 41 40 40 39 37 36 37 38 38 38 38 38 38 37
36 38 38 37 39 42 45 46 49 53 53 55 56 57 57 56 55 54 53 52 50 49 48 47 45 43 42 41 40 39 38 37 36 35 36 38 39 38 38 38 38 37
33 34 35 34 32 35 39 42 46 51 53 55 56 56 56 55 55 54 54 53 52 51 49 47 45 43 41 40 39 38 36 35 35 34 35 37 37 37 38 38 37 36
33 34 38 39 35 31 33 36 40 44 46 49 51 51 51 51 51 52 52 52 50 49 47 46 44 42 40 38 37 36 34 33 33 32 32 32 33 33 34 35 34 33
38 37 41 42 39 35 34 36 37 38 39 41 43 44 46 47 48 47 47 46 45 44 43 43 41 40 38 36 35 34 33 32 32 31 31 31 31 31 32 32 32 31
40 40 41 42 42 40 40 39 39 39 37 36 35 36 37 39 42 42 42 41 40 39 39 38 37 35 34 34 34 34 34 33 32 31 31 31 31 31 31 32 32 32
42 42 43 43 44 44 45 44 43 41 39 37 35 33 31 30 32 34 35 35 35 35 35 34 33 33 33 34 35 35 35 33 32 30 30 30 30 30 31 33 34 34
44 44 43 43 44 44 45 44 43 43 42 40 38 35 32 30 29 29 30 32 33 34 34 34 34 35 36 36 36 35 34 32 32 32 31 31 31 31 32 33 34 35
46 44 44 45 45 44 43 43 42 42 42 41 38 36 33 32 31 30 32 34 36 36 36 36 36 38 38 37 36 36 35 35 35 34 33 33 33 33 34 34 35 36
48 45 45 46 46 47 45 44 43 42 42 41 39 37 36 35 35 34 35 37 39 40 39 38 39 40 39 38 38 39 39 38 37 36 35 36 36 37 37 38 39 40
50 49 47 46 48 49 49 47 46 45 44 43 42 41 41 40 40 39 39 40 40 41 42 41 42 42 42 42 42 42 41 39 37 36 36 37 38 39 40 41 43 44
48 49 49 48 49 51 51 51 50 48 47 46 46 45 45 44 43 43 43 42 42 43 44 44 44 44 45 45 43 42 42 40 38 38 39 40 42 43 44 45 46 45
46 47 47 47 48 50 52 53 52 51 51 50 49 48 48 47 46 46 46 46 45 45 46 46 46 46 46 46 45 45 43 42 42 43 43 45 46 48 49 49 48 47
44 44 45 46 48 50 51 52 51 52 52 52 51 51 50 49 49 49 49 49 49 49 49 50 50 50 49 48 48 47 46 46 47 48 48 48 50 51 51 50 49 48
46 45 45 46 48 50 51 51 51 52 52 52 53 53 52 52 52 51 51 51 52 52 52 52 52 51 50 50 49 49 48 48 50 51 51 51 52 53 53 51 49 48
51 49 49 49 51 53 54 54 55 54 53 53 54 54 52 52 52 51 51 52 52 53 53 52 52 52 52 52 52 52 53 53 54 54 54 54 54 54 54 53 51 51
54 53 52 53 54 55 56 57 57 57 56 56 56 54 52 51 51 50 50 51 52 52 52 52 53 53 54 54 55 55 55 55 55 54 54 54 54 54 54 53 53 54
57 56 55 55 57 57 57 57 57 57 57 57 57 56 54 53 52 51 51 51 52 52 52 51 51 52 52 52 53 53 53 53 53 53 53 54 54 55 55 55 57 58
59 59 58 58 59 59 59 59 59 58 58 58 58 58 58 58 57 56 55 55 55 55 54 53 53 53 53 52 51 52 52 53 54 55 56 57 58 59 59 60 62 64

ECMWFNIL_250_spd_081.txt.gz
Wind_Speed
32 41 50 55 59 61 61 60 60 59 57 57 58 58 58 59 60 61 62 62 62 60 60 61 62 64 63 62 62 61 62 62 61 61 60 59 57 55 51 48 46 45
29 35 43 47 51 56 58 59 59 59 58 58 59 61 61 62 64 64 63 63 64 64 64 64 64 66 66 66 65 64 64 63 62 61 59 57 53 49 46 44 43 42
30 35 41 44 48 52 55 57 59 59 59 59 61 63 64 65 67 68 66 65 66 66 66 66 67 68 69 69 68 66 65 64 62 60 57 53 49 46 43 42 41 41
36 38 40 41 45 50 55 57 59 59 59 58 58 60 63 66 69 70 69 68 67 68 70 71 71 70 69 68 67 67 65 63 61 57 53 50 46 44 42 41 41 42
38 36 33 31 31 40 51 55 57 59 60 60 57 55 58 63 68 72 73 73 72 73 74 74 72 69 67 67 67 65 63 61 58 54 50 47 44 42 42 42 43 43
40 36 32 29 28 33 43 50 54 57 59 60 58 56 56 59 63 68 71 73 74 74 74 72 70 69 67 66 64 62 60 57 54 51 48 45 43 42 42 43 43 44
42 38 34 33 34 35 37 42 48 52 54 55 55 55 56 57 61 65 67 68 69 69 69 68 67 65 63 61 60 58 57 55 52 49 46 44 43 43 43 43 43 43
41 40 35 35 37 37 37 38 42 46 49 51 52 53 54 55 57 61 63 63 63 63 63 62 61 60 59 58 57 56 55 53 51 48 45 43 43 43 43 42 42 40
39 42 40 37 36 37 38 39 40 43 46 48 50 51 52 52 52 54 56 57 58 57 58 58 58 57 57 56 56 55 53 51 48 45 43 42 42 41 41 41 39 37
40 42 42 39 37 38 40 41 42 44 46 47 48 48 48 48 48 49 50 51 52 53 53 54 55 55 55 55 54 53 50 47 44 43 42 41 40 40 39 37 36 34
43 43 43 41 40 40 42 43 43 44 44 44 44 45 45 45 45 46 47 49 50 51 52 53 53 53 53 53 52 50 46 43 41 40 40 39 38 37 35 34 33 32
46 45 45 45 45 44 43 43 42 42 41 40 40 42 42 43 44 45 46 48 49 51 52 53 53 52 51 50 49 46 42 40 40 39 38 37 35 34 33 32 32 31
43 44 45 47 48 46 44 43 41 40 39 39 39 39 40 41 42 42 42 43 45 46 47 48 49 49 48 48 46 44 42 41 39 37 35 34 33 32 31 31 31 31
39 40 42 45 46 45 44 43 41 40 39 39 39 40 41 41 41 41 40 40 40 41 42 43 44 44 43 43 42 40 39 37 35 33 33 32 32 31 31 30 30 31
36 38 41 44 46 46 45 43 43 43 42 42 43 43 44 45 45 45 43 43 43 43 42 41 39 38 38 37 36 35 34 34 33 32 32 32 32 31 31 31 33 34
35 38 40 44 48 49 48 46 46 46 46 45 45 45 46 47 47 47 48 48 48 47 45 43 40 39 38 37 36 35 34 35 34 34 33 33 33 33 34 36 37 38
36 39 40 43 48 51 51 50 48 48 48 48 48 47 47 47 46 47 48 50 50 50 48 45 43 42 40 39 38 37 37 37 36 36 35 35 36 36 38 39 40 40
36 41 40 40 44 48 51 52 52 51 50 51 50 49 49 48 47 46 47 48 49 49 48 46 44 43 42 41 40 40 40 40 39 38 38 38 39 40 41 42 42 43
37 37 37 37 40 44 47 51 53 54 54 54 53 53 52 50 49 48 46 46 46 47 46 45 44 43 43 43 43 43 43 43 42 41 41 42 42 43 44 45 45 46
40 37 37 37 38 41 43 47 51 53 55 56 56 55 55 54 51 49 47 46 46 46 45 44 44 45 45 46 46 45 46 46 46 45 44 45 45 46 47 47 47 48
45 42 42 41 40 40 41 43 46 48 51 54 56 56 56 57 54 51 49 48 47 47 46 45 46 47 48 48 48 48 48 48 48 47 47 47 48 48 49 49 50 51
52 48 47 45 42 40 40 40 41 44 46 49 53 56 58 59 57 54 51 50 49 48 48 48 48 48 49 49 50 50 50 50 50 49 48 49 50 51 52 52 52 53
60 55 52 51 49 46 44 43 43 44 44 46 51 55 58 60 60 57 53 52 50 50 49 49 49 49 50 51 51 51 51 51 51 51 51 51 53 53 54 53 54 55
65 62 58 56 55 54 52 50 48 48 48 49 50 52 54 58 60 58 55 53 52 51 50 50 50 50 50 51 51 52 52 53 53 53 53 53 54 55 56 57 58 59
64 66 64 60 58 58 57 56 54 54 53 52 52 52 52 55 56 56 56 55 54 53 53 52 52 53 53 54 54 55 56 56 57 58 58 58 58 59 59 59 59 58
63 65 66 65 63 61 61 60 59 58 57 57 56 56 56 55 55 56 56 56 56 56 55 55 55 56 57 57 57 58 58 59 59 60 60 60 59 58 57 56 55 54

ECMWFNIL_250_spd_084.txt.gz
Wind_Speed
33 36 36 35 36 36 33 32 35 40 46 52 56 58 60 62 61 60 59 58 58 58 57 57 57 57 57 57 58 59 58 58 57 57 57 58 58 59 60 60 61 62
34 35 35 34 35 38 37 35 34 36 40 45 51 55 58 61 62 63 64 63 62 62 61 60 60 60 60 60 60 60 62 63 63 62 62 63 62 62 62 62 63 63
36 35 36 36 36 37 38 40 40 39 40 42 45 48 52 55 57 59 62 63 64 64 62 60 59 59 60 62 62 63 64 65 65 65 65 64 64 63 64 65 65 64
40 38 39 39 39 38 36 37 38 40 42 43 44 45 46 48 50 52 55 57 59 60 59 59 59 59 61 63 64 65 65 66 66 66 66 65 65 64 65 66 65 63
41 40 41 41 40 40 38 35 34 36 38 39 42 44 45 45 47 48 51 53 55 56 56 57 57 58 59 61 63 65 66 67 67 66 66 65 65 65 65 65 63 59
39 40 41 41 38 37 37 36 33 30 33 35 36 38 42 44 47 49 50 51 53 54 55 55 55 55 55 55 56 59 62 64 65 64 64 64 64 64 63 60 57 54
38 39 42 42 39 37 37 38 35 30 32 35 35 37 40 42 45 48 51 53 54 54 56 57 58 58 57 56 54 55 56 58 59 59 60 61 61 59 57 54 53 52
36 38 41 43 41 40 40 40 39 38 38 38 38 39 41 41 43 44 47 50 53 54 56 57 58 57 57 56 54 53 53 54 55 55 56 56 55 53 52 51 51 49
34 35 38 41 41 42 42 42 42 43 45 46 45 44 44 43 43 42 42 43 45 48 50 51 52 52 52 52 52 51 51 51 52 52 52 51 50 49 49 48 47 46
35 36 38 39 39 40 42 43 44 46 47 48 48 47 47 45 43 41 41 42 42 43 44 46 47 48 49 49 49 49 49 50 50 50 49 48 47 47 46 44 43 43
39 38 39 40 40 40 41 42 44 48 49 48 46 45 44 44 42 42 43 43 43 44 44 44 45 46 47 47 47 47 48 48 48 47 46 46 45 44 42 41 40 40
42 40 40 42 43 43 44 43 44 47 50 51 49 45 42 42 42 42 43 43 43 43 43 43 44 45 45 45 45 45 45 44 44 43 43 42 41 40 39 39 39 38
39 39 39 41 41 42 45 47 46 46 47 50 49 46 44 44 44 43 43 43 42 42 42 42 43 43 42 42 41 41 41 40 40 39 39 39 38 38 38 37 37 35
35 36 37 36 35 38 43 48 50 49 48 49 49 48 47 46 46 45 45 45 44 44 44 43 42 41 40 39 39 39 39 38 37 37 36 36 37 36 35 35 34 34
36 37 37 35 33 35 39 45 49 50 50 50 50 50 48 47 47 47 48 48 47 47 46 45 44 43 42 41 41 40 39 38 37 36 36 36 36 36 36 36 35 35
35 35 34 34 33 33 36 41 45 46 48 49 49 49 48 47 48 49 50 50 50 50 49 48 47 47 47 46 45 43 42 41 40 40 40 40 40 39 39 39 39 39
34 34 34 33 33 34 36 41 45 45 46 48 49 49 48 47 49 51 51 51 52 52 52 51 50 50 50 49 48 46 45 44 44 45 44 44 43 43 42 42 41 41
35 36 36 35 35 35 37 39 42 44 46 48 49 50 49 49 51 53 53 52 52 52 52 52 51 50 50 49 49 48 47 47 47 46 46 45 45 45 44 43 43 42
37 39 40 40 39 39 40 40 39 40 43 46 49 50 51 51 52 55 56 55 55 53 53 52 50 49 49 48 47 47 47 47 46 46 46 46 45 45 45 45 44 44
43 43 44 45 44 43 43 44 44 43 44 47 49 51 54 55 55 56 57 58 58 57 55 54 52 50 49 48 47 47 47 46 46 47 46 46 45 46 46 47 47 47
52 50 49 49 48 48 48 48 48 48 49 50 50 51 54 56 58 58 58 58 59 59 58 57 56 54 52 51 50 49 48 48 49 49 47 46 46 47 48 49 50 50
58 56 54 52 51 51 50 49 48 48 49 51 51 51 51 53 56 58 59 59 59 59 60 59 59 58 57 55 54 52 51 50 51 52 50 48 49 50 51 52 52 52
59 59 58 55 53 52 52 52 50 48 48 49 50 49 49 51 55 59 60 61 60 60 60 60 60 60 59 57 56 55 54 53 54 54 53 53 52 52 53 54 55 55
60 60 60 60 58 55 55 55 53 50 49 51 51 50 50 52 56 59 61 63 63 62 61 61 60 59 58 57 56 55 55 54 54 54 54 54 54 54 54 54 55 56
62 60 59 60 60 59 59 59 58 56 53 54 56 56 56 56 57 59 60 62 64 64 63 63 61 60 58 58 57 57 57 57 57 57 56 56 56 56 56 56 56 56
65 63 61 59 59 59 60 61 62 62 60 60 61 62 62 60 60 59 60 61 63 63 63 63 63 63 62 61 60 60 60 60 60 60 59 59 59 59 59 59 59 59